GFSMW_sfc_temp_021.txt.gz
Temp
66 66 65 67 67 66 68 68 69 68 68 67 66 68 66 67 68 68 66 65 66 65 64 65 65 64 62 63 62 62 59 60 61 59 60 61 61 60 62 63 63 62 64
66 65 65 64 65 68 68 67 67 65 65 66 65 65 64 66 65 65 65 65 64 64 63 63 64 63 62 61 61 59 60 60 61 59 59 56 60 59 59 61 61 60 62
65 66 65 64 63 63 62 64 65 65 64 63 65 65 65 65 66 67 67 67 65 64 63 62 62 62 61 61 61 60 58 59 60 59 59 54 53 59 58 57 59 59 59
65 64 64 62 61 60 61 63 63 64 64 63 63 61 61 60 63 62 63 63 63 62 62 61 60 60 61 59 60 61 59 58 58 56 57 56 56 54 54 55 56 57 56
61 61 61 61 60 60 60 62 63 63 62 61 61 60 59 60 60 60 59 60 61 61 60 59 58 58 59 58 57 57 55 57 53 56 56 53 53 52 52 51 53 53 55
58 59 60 61 61 61 61 61 62 62 62 61 60 58 56 56 57 57 58 59 59 59 56 55 54 54 54 53 54 53 52 53 52 51 52 50 51 50 48 46 47 48 51
56 58 59 61 61 60 59 61 61 60 60 59 57 57 56 55 56 57 57 56 56 56 53 52 52 51 51 51 51 50 49 49 46 43 41 41 40 39 37 37 38 41 49
56 57 58 59 60 59 60 60 59 59 59 58 57 57 57 57 57 56 55 54 53 52 50 50 51 50 50 50 50 45 44 42 39 38 37 36 37 39 39 38 37 37 43
57 58 60 60 59 57 58 57 57 57 59 58 56 56 56 54 54 54 53 52 51 50 49 50 50 50 50 47 45 42 41 42 42 41 40 40 41 42 42 43 43 39 37
58 60 61 59 59 59 60 58 58 57 57 57 55 55 54 54 53 51 50 49 49 49 49 50 49 48 49 48 47 46 46 44 43 43 42 43 45 45 45 45 45 44 41
57 58 58 59 59 58 58 57 57 56 56 55 53 52 52 51 50 48 48 48 48 49 48 48 48 46 45 46 47 46 46 46 45 46 45 45 45 45 45 46 46 45 44
56 56 57 56 56 57 59 58 57 56 55 53 52 52 50 49 48 47 48 48 48 47 46 45 42 41 42 46 46 44 44 43 43 44 44 44 45 44 44 43 42 43 44
55 56 56 56 56 57 57 55 54 53 53 52 51 49 47 46 46 45 44 46 44 43 43 42 43 45 44 44 44 43 43 43 43 42 41 41 40 39 41 41 40 41 42
53 54 54 55 55 55 53 52 52 51 51 51 50 47 46 46 44 43 43 44 45 45 46 45 44 43 43 43 43 43 42 41 41 41 40 39 39 38 38 38 38 39 38
51 51 52 53 52 50 50 51 50 50 50 48 47 46 46 46 46 45 46 46 46 45 44 40 41 40 40 41 40 41 40 39 39 39 40 39 39 37 37 37 38 37 35
48 50 50 49 48 48 47 46 46 47 48 47 46 44 43 44 43 42 45 45 44 44 42 41 39 39 40 36 36 37 39 38 36 35 37 38 36 37 35 34 34 34 32
48 47 47 47 45 45 44 44 45 46 46 45 46 44 43 44 44 44 43 41 41 41 40 39 39 38 37 35 35 35 36 35 35 35 35 36 37 35 36 34 33 32 33
46 46 46 45 45 45 45 44 46 46 45 45 45 45 43 43 42 42 41 40 40 39 38 38 37 37 37 34 33 33 35 34 34 35 35 34 34 33 32 32 32 34 35
47 46 45 45 44 44 45 44 44 45 45 43 43 43 41 41 40 39 38 39 38 38 37 37 36 35 34 33 32 32 33 32 32 34 34 34 32 33 33 31 30 32 35
48 46 45 44 44 45 45 45 44 41 41 42 42 42 40 39 38 37 37 37 37 36 35 34 35 33 32 31 31 32 32 30 31 33 35 33 33 31 31 31 30 29 32
46 45 43 42 43 44 44 43 43 41 42 44 41 40 39 37 37 37 37 36 36 33 30 29 30 31 31 30 31 31 30 30 30 31 32 33 31 31 31 31 30 29 31
44 43 41 42 43 44 43 43 42 44 44 41 39 39 38 37 36 36 36 35 34 31 28 28 29 31 30 30 30 30 30 31 29 29 32 32 30 30 30 30 29 29 29
45 43 41 41 43 43 43 41 42 42 40 39 38 37 37 36 36 35 34 33 33 30 29 28 28 28 30 31 30 29 30 30 29 30 30 28 28 28 28 28 28 28 30
43 42 41 41 40 43 42 42 40 39 38 37 36 36 35 35 35 35 34 32 31 29 29 28 27 27 29 29 30 30 31 30 29 28 29 26 26 27 27 28 29 29 28
42 42 40 39 40 42 41 41 40 38 37 35 35 35 34 33 32 32 32 31 31 29 28 28 28 25 25 27 28 28 27 27 26 27 26 24 24 25 26 27 27 29 29
42 41 40 40 40 40 39 39 39 37 35 34 34 32 32 32 31 31 30 31 29 29 29 29 28 28 28 28 27 26 26 25 25 24 21 21 21 22 23 23 24 26 26

GFSMW_sfc_temp_024.txt.gz
Temp
78 79 77 78 78 76 77 77 78 77 79 79 77 78 77 78 78 80 77 74 75 74 72 73 73 73 72 71 71 71 69 69 71 67 68 70 70 69 71 72 72 71 70
76 75 75 74 74 74 74 75 74 74 75 79 76 75 73 76 75 76 75 75 73 72 72 70 71 71 70 69 68 68 67 68 70 65 65 62 67 69 69 70 70 68 71
73 74 73 72 73 71 72 74 74 73 72 73 76 77 77 76 75 74 74 73 70 70 70 70 69 68 68 68 68 67 66 64 67 68 63 60 59 65 71 66 68 67 67
74 73 72 71 70 70 72 73 73 73 72 71 72 69 70 68 69 69 71 70 70 69 69 68 67 66 67 66 66 68 65 65 62 66 68 65 64 59 57 63 65 66 65
70 70 70 70 70 70 70 71 73 72 71 70 69 68 66 69 69 67 66 67 69 68 69 67 64 64 65 64 63 62 62 63 62 62 62 59 61 61 54 56 57 63 64
68 69 71 72 71 70 70 70 71 71 69 68 66 63 62 63 65 65 64 66 66 67 67 66 63 62 61 60 60 59 58 58 57 56 55 53 49 49 50 51 55 53 55
68 69 69 70 69 69 69 70 70 69 69 67 67 66 65 64 63 63 63 61 62 63 62 61 60 60 58 57 55 52 50 47 45 43 42 41 40 39 38 37 39 41 48
66 67 68 68 69 67 68 68 68 68 68 67 66 66 65 65 64 62 61 60 60 60 60 58 58 57 56 54 52 51 45 42 41 39 39 39 39 39 39 37 37 37 39
65 67 69 68 68 68 67 66 67 68 68 66 65 64 63 61 60 60 59 59 58 59 57 55 55 54 52 52 52 48 47 46 46 46 45 45 44 43 42 42 41 38 36
65 67 67 66 67 68 68 66 66 66 66 65 64 62 61 61 60 58 57 56 57 56 53 51 50 48 46 46 47 46 46 46 47 47 45 45 46 46 46 45 46 45 44
64 64 65 66 66 66 66 66 64 64 64 64 62 60 59 58 58 57 56 55 54 50 48 46 44 42 42 43 45 45 46 46 47 48 47 48 51 51 51 51 50 48 48
64 65 65 65 66 65 64 63 62 61 61 61 60 59 58 57 56 54 54 54 51 48 44 42 43 46 48 47 47 48 48 47 48 48 48 48 50 48 49 49 48 48 49
65 64 64 64 63 62 61 61 61 59 59 59 58 57 56 55 54 52 50 48 48 48 48 49 50 50 49 49 49 49 48 48 47 47 46 46 46 45 46 46 46 47 48
63 63 62 61 61 60 59 59 58 57 57 56 56 55 52 50 49 50 48 50 52 51 51 50 47 47 47 48 48 47 46 46 46 45 45 45 44 44 44 44 43 44 44
60 59 57 59 58 57 56 56 55 55 55 54 54 51 52 47 45 43 46 48 51 51 50 48 49 48 48 48 43 43 44 44 44 44 44 44 43 39 39 40 41 42 42
56 54 53 56 55 54 54 53 53 53 54 53 52 50 49 49 49 49 48 50 50 50 49 48 47 46 47 36 36 37 41 42 42 41 42 43 41 41 37 36 35 36 34
52 52 55 54 54 53 53 52 52 54 53 52 51 50 50 49 49 50 49 48 47 48 46 46 45 44 44 36 35 34 39 40 41 41 41 42 43 39 38 36 35 34 33
48 52 54 54 54 54 54 53 54 52 51 49 50 50 49 48 48 48 47 46 46 45 45 44 44 43 43 36 34 33 38 39 40 40 41 39 37 36 35 34 34 35 36
50 54 55 54 54 54 54 53 52 53 50 48 46 47 48 47 46 46 45 45 45 44 43 43 41 40 40 35 33 33 35 36 36 36 36 37 35 35 34 33 32 35 37
56 55 54 54 54 54 53 51 51 50 49 48 48 49 48 46 45 45 44 44 44 43 41 39 39 37 36 34 32 33 33 30 32 34 36 35 35 33 32 32 31 30 34
55 56 55 53 53 53 51 49 50 49 50 50 49 48 47 46 45 44 44 43 42 39 34 32 34 34 34 33 32 32 30 30 30 32 34 36 31 30 31 31 32 30 32
56 56 53 53 54 53 51 49 49 52 51 49 48 47 46 45 44 43 43 42 41 36 32 31 32 35 33 34 33 32 31 31 29 30 33 33 30 30 30 30 30 29 29
55 54 53 52 52 52 51 48 50 50 48 47 46 45 44 44 44 42 41 39 38 34 31 30 30 31 34 35 32 31 31 31 30 32 30 29 28 29 29 30 29 29 30
52 52 51 50 50 52 51 50 49 48 47 45 44 44 43 41 43 42 41 38 34 31 31 30 29 30 32 33 31 31 31 30 30 29 30 29 27 28 28 30 31 31 32
51 50 49 48 49 50 50 50 48 46 44 43 41 41 40 40 39 39 38 36 35 31 30 30 30 28 27 28 29 28 27 28 27 27 28 28 27 27 29 29 30 31 31
49 48 48 48 48 49 49 49 48 45 43 40 40 40 38 38 37 37 36 33 30 29 29 28 28 29 28 28 27 27 26 25 25 26 25 24 23 25 27 27 28 28 28

GFSMW_sfc_temp_027.txt.gz
Temp
83 82 81 82 83 81 82 82 82 80 81 82 80 80 79 80 80 81 79 77 77 75 74 74 74 74 72 72 72 72 70 70 72 68 70 71 72 72 73 74 73 73 73
78 78 78 78 77 77 79 79 79 78 79 81 78 77 76 78 78 79 77 77 75 73 72 71 71 71 70 69 69 69 68 69 71 64 64 61 66 72 72 72 72 70 73
76 76 75 75 75 75 76 77 77 77 75 76 80 78 78 78 77 77 76 75 73 72 71 70 69 68 69 68 68 68 66 65 68 68 63 57 57 65 72 68 69 69 70
76 76 74 74 73 73 75 77 76 76 75 74 75 72 72 71 73 72 72 72 72 71 71 70 69 67 66 65 66 68 66 65 62 66 68 63 60 54 55 64 62 66 65
74 74 74 74 74 73 73 74 76 75 74 73 71 70 69 70 71 71 69 68 70 70 70 69 67 65 64 64 63 62 62 63 61 61 57 55 56 58 49 47 58 56 63
73 74 75 75 75 74 73 74 74 75 74 73 71 69 67 66 67 67 66 67 66 67 67 66 64 63 62 62 61 58 56 54 54 54 52 48 45 47 42 44 48 48 52
72 72 72 73 72 72 72 73 74 73 74 72 70 69 68 66 66 65 64 62 62 63 63 63 61 62 60 56 55 54 52 51 48 45 43 41 39 39 38 37 37 36 42
71 71 72 72 73 72 73 72 71 71 72 71 69 69 68 67 65 64 62 61 61 60 61 61 57 54 50 50 50 47 48 47 42 41 42 43 43 44 41 39 38 37 39
69 71 72 72 71 71 71 70 69 69 69 69 68 66 65 64 63 62 61 60 59 60 58 52 47 46 47 47 45 45 45 45 48 46 44 43 44 44 43 42 41 37 35
69 70 71 70 70 70 71 70 69 68 68 68 65 65 64 64 63 61 59 58 58 54 52 47 47 47 45 45 47 44 45 43 43 44 44 45 47 47 47 45 44 42 39
69 70 70 70 70 70 70 69 67 66 65 65 64 63 63 63 62 59 59 57 54 52 51 50 48 47 48 49 49 49 48 47 47 48 47 47 49 50 50 50 49 47 46
69 67 67 67 66 67 68 66 65 65 64 63 62 61 61 61 59 57 52 54 53 53 52 50 50 50 51 51 50 49 49 48 48 48 48 48 51 48 49 49 48 48 49
68 68 66 64 65 66 65 64 63 62 61 61 60 60 59 57 54 53 52 53 52 51 50 50 48 50 51 50 50 49 49 49 48 48 48 47 47 46 47 47 46 47 48
66 65 64 64 65 64 63 61 60 59 59 59 58 57 55 53 52 50 44 48 49 49 49 50 51 51 52 51 51 50 47 46 47 47 46 46 45 45 45 45 45 45 44
63 62 60 61 61 61 59 59 58 59 59 57 57 56 52 52 51 50 49 51 51 52 52 52 51 51 50 50 46 45 43 43 43 45 46 46 45 41 41 41 41 41 40
61 59 58 56 57 59 58 58 58 57 58 57 56 55 51 51 50 51 50 50 50 50 51 50 49 48 50 36 36 37 40 40 41 41 43 45 44 43 39 38 37 37 35
56 54 52 54 57 58 58 57 57 58 57 56 55 52 51 50 50 51 50 49 48 50 48 48 48 47 47 37 36 35 38 38 39 41 41 42 45 42 43 38 36 35 34
49 49 52 56 59 58 58 58 58 57 57 56 54 53 50 49 49 49 48 49 48 47 47 46 46 45 45 36 35 34 37 38 38 39 39 40 39 39 37 36 36 36 37
48 52 57 59 58 58 60 58 57 57 56 54 53 51 50 49 49 48 48 48 47 46 45 45 42 40 40 37 34 34 34 34 35 37 37 37 36 36 36 32 32 34 36
56 58 59 60 60 60 59 56 55 55 53 54 52 52 50 49 49 48 47 47 47 45 44 40 39 36 36 36 35 34 33 30 32 34 36 35 35 34 33 32 31 30 33
59 61 61 59 60 60 58 55 55 54 56 55 53 51 50 49 49 47 47 46 45 43 37 33 36 37 36 35 35 34 32 32 31 31 32 34 32 30 31 31 30 30 32
60 60 58 57 59 59 57 55 53 57 56 53 51 49 49 49 48 46 46 45 43 40 33 32 33 35 35 35 35 32 32 32 30 30 33 32 31 31 30 29 30 29 30
58 58 56 55 56 57 56 53 53 53 50 50 48 47 48 48 48 45 44 42 41 38 32 32 32 32 35 36 34 32 31 31 30 31 30 30 30 29 29 30 29 29 30
55 56 54 53 52 55 55 54 54 51 50 47 46 45 45 44 44 45 44 40 38 33 32 32 31 31 32 33 32 31 30 30 30 29 29 30 29 29 30 30 31 31 31
54 54 52 51 52 53 52 53 54 50 47 44 41 42 43 43 40 41 41 39 38 34 31 31 30 28 27 29 29 28 27 27 27 26 29 28 27 26 28 29 30 31 32
52 52 52 51 50 51 50 49 48 48 43 37 38 41 40 39 38 38 38 36 33 31 30 29 28 29 29 28 28 28 27 27 26 26 25 24 24 23 25 26 27 29 29

GFSMW_sfc_temp_030.txt.gz
Temp
76 76 75 76 76 75 76 76 74 71 72 72 70 69 67 68 69 71 70 70 69 68 65 64 64 62 61 60 61 60 59 60 60 59 60 61 63 62 65 64 61 63 65
73 74 73 71 72 72 73 74 73 71 72 71 70 68 67 69 69 70 69 70 68 66 66 62 61 61 59 58 57 57 57 58 58 56 57 53 57 60 64 64 65 64 66
71 71 71 70 69 69 70 72 72 71 69 68 71 69 68 67 67 67 67 66 66 66 64 62 60 59 58 56 55 56 55 55 56 56 54 50 49 54 58 60 57 59 61
73 72 71 69 68 68 69 71 72 72 70 68 67 64 63 63 63 64 64 64 64 63 62 61 59 57 57 55 55 59 54 53 51 54 57 52 49 45 46 53 55 56 57
71 71 70 70 70 68 68 69 71 72 70 68 66 63 61 61 62 61 60 60 60 60 61 59 57 55 55 54 53 51 49 50 48 47 46 46 46 48 45 43 46 51 50
70 72 73 73 70 69 68 68 70 71 70 68 66 63 61 60 58 58 57 57 57 57 57 58 55 54 53 51 50 49 49 49 47 45 45 43 41 40 39 38 39 40 44
69 70 71 71 71 69 69 69 69 68 68 66 65 63 61 59 58 57 56 55 55 54 54 54 51 49 48 48 48 47 46 46 44 42 41 41 40 40 39 37 37 37 40
70 70 70 69 69 68 67 67 67 66 66 64 63 62 60 59 58 58 55 53 53 52 50 49 48 47 47 46 46 45 45 45 43 42 42 41 42 42 41 38 36 35 37
69 70 70 69 67 67 66 65 65 66 65 63 61 60 59 58 57 57 55 53 53 54 49 47 46 45 45 46 45 43 42 43 42 41 42 42 42 41 40 40 39 35 31
69 69 69 68 68 67 67 64 64 64 63 62 59 59 58 57 56 55 53 51 50 50 49 47 46 45 44 44 44 45 45 43 41 41 41 42 43 43 43 42 41 40 36
67 68 68 68 67 66 65 63 62 62 60 59 58 56 56 56 55 53 51 50 49 50 48 49 46 47 47 46 44 43 44 42 42 42 43 42 44 43 43 42 42 41 40
68 68 67 65 64 62 62 62 60 59 58 58 57 56 55 55 53 51 51 50 49 50 49 48 47 47 47 47 46 44 44 43 42 43 42 42 47 40 40 40 40 40 41
68 66 65 64 63 62 61 60 58 58 57 58 56 55 54 51 49 49 48 47 46 47 46 47 47 47 47 46 45 45 44 42 41 40 40 41 41 39 38 39 40 40 43
64 63 63 62 62 61 60 59 58 57 57 57 55 53 50 49 48 48 47 46 46 46 46 47 47 47 47 47 45 44 40 39 39 39 39 40 40 39 38 37 35 38 35
60 58 58 58 58 58 58 58 57 56 56 55 54 52 50 49 48 48 48 48 47 47 47 46 45 44 46 43 37 38 37 35 36 36 39 39 41 42 39 39 35 34 32
55 55 57 55 55 56 57 57 56 55 55 54 53 53 51 49 48 47 46 47 46 46 45 44 43 42 47 36 36 35 33 35 34 33 35 38 40 40 40 39 37 35 30
53 53 53 53 55 56 57 55 55 56 55 54 55 54 51 48 47 48 48 46 44 44 42 42 42 40 39 37 36 35 33 32 32 33 34 35 40 37 37 36 36 35 35
51 51 52 53 56 58 57 56 58 55 54 53 53 53 50 48 48 47 46 44 42 40 39 39 39 37 39 37 35 34 31 30 31 31 32 32 31 33 33 32 31 32 34
51 52 55 57 58 58 59 58 56 55 54 53 53 52 50 48 47 45 44 42 40 39 39 39 36 34 33 36 36 33 29 29 29 31 31 32 31 34 35 31 29 30 31
55 57 58 59 58 58 57 56 55 55 53 53 50 49 49 48 46 44 42 41 40 40 36 35 34 35 32 36 36 35 29 25 28 29 31 33 33 32 31 29 28 26 28
58 59 58 56 56 56 55 53 53 52 51 50 49 49 49 47 46 44 42 41 38 35 31 30 31 32 33 31 36 32 27 27 27 27 28 30 32 30 32 31 28 27 30
57 57 55 54 55 55 53 52 51 54 52 51 48 46 45 46 46 42 40 39 37 33 28 27 28 31 32 35 34 31 31 31 26 26 27 28 30 31 30 30 30 30 29
55 55 53 52 53 54 54 50 50 51 48 46 44 43 45 44 44 40 38 35 35 30 28 29 28 29 30 30 32 30 30 30 26 27 28 28 29 30 29 30 30 29 28
53 53 51 50 50 52 52 51 50 48 46 44 42 40 38 39 40 40 38 32 30 28 31 29 25 24 27 27 26 26 25 28 27 26 25 26 28 27 27 28 29 29 29
52 51 50 49 49 51 49 50 48 46 42 39 38 37 37 37 35 35 34 32 32 29 26 25 24 21 20 24 27 27 24 24 25 24 25 25 24 23 24 25 26 27 27
49 49 49 48 49 49 48 48 46 44 39 35 34 34 33 33 33 32 33 35 33 32 32 31 26 23 28 29 29 29 28 28 28 24 22 21 21 21 22 23 23 24 25

GFSMW_sfc_temp_033.txt.gz
Temp
66 66 66 66 67 64 66 66 66 61 60 60 60 59 60 61 61 62 65 65 63 62 60 58 58 57 56 54 55 53 52 54 53 53 56 54 55 55 56 56 56 56 59
63 64 62 60 59 60 62 63 64 63 63 61 60 60 59 61 61 61 62 62 61 61 61 56 55 55 53 53 52 51 49 50 51 48 50 47 51 53 55 54 56 55 54
61 63 62 58 59 59 61 63 63 63 61 61 60 60 59 59 58 58 57 58 58 58 56 55 53 52 52 50 49 50 48 46 48 48 45 43 41 46 51 52 53 51 51
62 62 60 58 59 58 60 62 63 63 63 62 59 57 54 54 55 55 55 56 56 56 56 54 52 51 50 49 48 49 46 45 42 45 49 44 45 41 41 46 50 46 47
60 59 59 60 60 60 60 61 62 62 62 60 59 56 55 55 55 55 54 54 54 54 54 54 51 48 47 46 45 45 45 48 47 45 44 44 41 39 35 36 40 44 45
60 61 61 61 59 59 59 60 61 61 60 59 57 56 54 55 53 53 51 51 51 51 50 50 47 46 45 44 43 43 45 42 43 43 41 40 38 39 38 37 37 37 41
58 59 60 59 58 58 57 60 59 59 59 58 56 54 54 53 51 50 49 48 48 46 45 45 44 43 43 43 43 44 42 41 40 41 41 39 37 40 39 37 36 35 37
61 59 59 58 58 59 58 58 59 60 59 56 55 54 53 52 51 51 50 48 47 44 44 44 43 43 43 42 41 41 41 40 40 38 42 41 41 41 39 38 36 32 34
60 59 59 59 58 59 58 56 57 58 56 54 52 52 52 51 50 49 47 45 45 49 44 43 43 42 42 41 41 39 39 39 38 38 39 38 39 41 41 40 39 34 29
59 60 59 58 57 57 56 56 56 56 54 53 51 52 50 50 48 46 45 46 45 46 45 44 42 42 42 43 40 39 40 39 38 38 37 37 38 39 40 42 40 39 36
59 58 57 58 58 58 56 54 54 53 51 51 51 49 49 49 48 48 46 45 45 44 44 45 46 45 45 45 42 41 41 40 39 39 39 39 40 37 37 38 37 37 37
59 58 57 57 56 55 54 52 51 51 50 51 50 49 49 47 45 45 44 43 42 43 44 46 45 45 44 44 43 41 41 39 36 36 36 37 41 35 36 35 35 35 35
56 55 55 53 53 55 54 52 52 51 52 51 50 48 47 45 44 43 44 43 42 42 42 43 43 43 42 42 41 39 38 36 36 36 36 35 35 34 35 36 34 34 38
53 52 52 52 52 55 54 53 50 50 50 50 49 47 44 45 44 43 43 42 43 42 41 43 43 42 41 39 38 38 34 33 34 34 34 34 34 33 34 35 34 35 31
51 51 49 48 49 49 50 51 50 50 50 49 48 46 44 44 44 43 43 43 43 43 42 41 41 40 39 38 33 33 31 30 31 32 34 34 36 39 38 36 33 31 29
49 49 49 49 49 50 50 51 50 49 49 48 47 47 45 44 43 42 42 42 42 42 41 40 38 35 39 36 36 33 29 30 30 29 31 31 35 36 36 37 36 34 30
46 47 46 47 49 48 52 48 49 49 49 48 48 49 46 46 43 44 43 41 39 38 38 37 35 34 33 36 36 35 30 29 28 27 28 30 35 32 32 33 34 34 35
45 45 46 48 49 50 49 48 51 49 47 49 48 47 44 45 45 43 42 40 38 36 37 34 33 32 36 37 37 35 29 27 28 28 28 28 28 30 31 30 29 29 30
44 46 49 49 47 47 48 48 47 47 49 44 43 43 44 43 42 41 39 39 38 35 34 33 32 30 30 35 35 34 27 27 27 29 29 29 29 32 34 29 26 27 28
47 48 48 48 47 46 47 45 46 46 44 45 43 43 42 42 38 39 39 38 36 34 32 31 31 33 29 34 36 31 22 22 26 26 28 30 30 31 30 28 27 24 26
49 49 47 45 45 46 46 46 44 43 45 45 44 42 40 41 41 40 38 38 32 30 28 26 29 30 30 29 34 32 27 25 25 25 25 27 30 30 30 31 27 26 28
47 48 45 43 45 46 47 43 42 44 43 43 42 39 39 41 42 36 35 34 30 28 20 17 20 24 26 32 31 31 30 29 21 23 25 26 28 29 30 29 30 30 29
45 46 43 44 45 45 44 42 42 42 41 39 38 37 39 39 38 35 32 30 28 23 21 21 19 18 25 23 29 29 29 28 23 25 27 27 28 29 27 28 29 28 28
43 45 44 43 43 45 46 42 42 41 39 36 35 36 34 34 33 34 32 25 22 21 25 21 17 14 21 21 21 24 21 25 25 25 25 25 26 25 25 26 26 26 26
43 43 42 42 42 44 44 43 41 39 36 34 35 33 31 32 31 31 28 27 26 25 20 20 18 11 9 19 28 27 25 25 25 24 23 23 22 22 23 23 24 25 25
42 41 41 41 41 41 41 41 39 37 34 32 33 32 29 28 26 24 26 33 31 32 33 32 23 18 26 29 30 30 29 29 27 22 20 18 19 19 20 20 21 23 23

GFSMW_sfc_temp_036.txt.gz
Temp
60 61 61 60 61 59 61 61 60 58 58 57 56 56 56 57 58 61 63 62 61 59 55 54 53 53 52 50 51 50 49 49 49 47 50 49 51 51 50 51 52 54 55
59 60 58 56 56 56 58 59 60 60 59 58 56 57 55 56 58 59 58 58 56 56 56 52 51 51 50 49 48 47 46 46 46 44 44 42 47 46 51 51 52 47 50
56 58 57 54 54 55 57 59 59 59 58 59 58 57 56 55 54 54 53 54 54 54 52 51 50 49 48 46 45 45 44 43 44 44 44 39 37 42 46 49 46 44 45
58 58 57 56 56 56 57 58 59 59 60 58 57 55 53 52 52 51 51 51 53 52 52 50 48 47 46 45 45 47 44 47 45 44 47 43 43 35 37 41 45 42 44
56 56 56 57 57 58 57 57 58 58 58 56 55 53 53 53 54 53 51 51 51 51 51 49 47 45 45 44 43 42 42 42 41 40 38 38 38 37 34 33 37 40 40
55 56 57 58 56 55 55 55 56 56 56 55 53 53 52 51 51 50 49 49 48 47 47 47 45 44 43 42 42 41 41 40 40 39 37 39 38 38 37 36 37 36 37
55 55 55 55 55 54 54 56 57 55 54 54 53 52 51 50 48 48 47 47 45 43 44 44 43 42 42 42 41 40 39 38 37 37 36 38 40 40 39 37 35 35 38
58 55 55 55 55 56 55 54 55 54 54 53 51 50 50 49 49 47 46 45 44 44 44 43 42 42 42 42 40 38 38 38 36 36 37 38 41 39 39 37 35 33 35
57 58 55 54 54 54 54 53 54 53 52 51 50 49 49 48 46 45 45 44 44 47 43 42 42 41 41 41 40 38 37 37 37 36 36 36 36 37 36 36 38 35 30
60 55 56 56 54 53 52 51 51 51 52 51 50 50 48 47 45 44 44 43 43 43 42 42 41 40 44 44 40 39 39 38 38 39 37 36 36 36 36 38 37 37 34
56 55 55 53 53 51 51 50 51 51 50 53 49 47 47 46 45 44 42 42 42 42 41 42 42 43 41 42 41 40 40 39 37 35 35 35 37 35 34 34 34 33 33
54 53 51 52 51 51 51 50 49 52 50 49 48 47 46 45 43 43 42 42 42 42 41 42 42 42 41 40 39 37 36 35 34 34 34 35 38 33 32 31 31 32 34
50 50 50 50 50 51 51 50 49 48 49 49 47 47 45 43 42 42 42 42 42 41 40 41 40 40 40 37 36 35 34 33 33 33 33 33 32 31 31 31 31 32 36
49 49 47 47 47 49 48 48 48 48 48 48 47 45 44 42 41 41 41 41 41 40 40 40 40 39 37 36 35 34 31 31 32 31 31 30 30 30 30 31 30 31 29
47 47 46 45 46 47 47 49 48 48 47 46 45 44 43 42 43 41 41 42 43 43 42 40 38 37 36 36 32 32 30 29 29 30 30 31 33 36 35 33 31 29 28
46 45 46 46 47 47 47 47 47 46 46 45 45 46 44 44 41 42 40 42 42 41 40 37 36 35 38 36 36 33 29 30 29 27 29 29 32 31 33 33 34 33 30
44 44 44 45 45 45 46 45 45 47 46 45 45 44 44 42 41 41 40 39 37 38 38 36 34 32 32 36 37 36 31 28 27 26 27 29 33 31 30 31 32 32 33
42 43 43 44 45 45 45 44 45 45 44 43 42 42 41 40 40 38 38 36 36 36 36 32 32 31 34 36 36 35 29 27 27 27 27 27 27 27 29 29 28 28 28
42 43 43 45 44 44 44 43 42 42 42 41 41 41 40 39 38 38 36 36 35 35 32 32 30 29 29 34 35 29 25 26 25 28 28 28 27 30 32 28 26 27 27
43 44 44 44 42 42 43 41 40 40 39 40 40 41 40 38 37 35 35 35 34 33 31 31 30 32 27 33 34 31 23 17 24 25 27 29 28 29 30 27 25 24 26
44 44 42 41 41 42 42 40 39 39 40 41 40 40 38 37 40 37 35 32 31 29 28 25 27 28 28 27 32 31 22 22 24 24 24 25 28 29 30 30 27 27 29
43 43 40 40 41 42 41 40 37 40 40 39 37 37 36 37 38 35 33 33 29 27 18 14 19 23 24 31 29 30 29 29 21 22 24 25 29 29 29 27 29 29 28
40 41 39 39 40 41 40 38 40 40 38 36 35 35 35 35 35 33 30 29 27 22 20 19 17 17 24 22 29 28 29 28 23 24 26 27 28 27 26 27 27 26 26
39 40 39 38 37 39 40 38 40 39 36 35 33 33 35 32 33 33 32 26 21 20 24 20 16 12 20 20 21 23 19 24 25 23 24 24 25 24 24 24 25 25 24
38 38 37 36 36 37 38 38 37 38 35 34 33 33 33 31 30 30 27 27 26 24 19 19 17 9 8 18 26 28 24 23 25 18 17 20 20 20 21 22 22 23 24
37 36 36 36 35 37 36 36 36 36 34 31 30 31 29 27 27 26 27 31 31 31 33 33 22 17 24 29 30 30 29 28 26 16 12 15 17 17 19 18 19 21 21

GFSMW_sfc_temp_039.txt.gz
Temp
55 57 58 59 58 57 58 59 60 59 57 56 56 54 53 53 54 59 60 59 59 57 55 55 52 50 50 48 49 47 46 46 45 44 46 46 47 46 46 47 47 48 49
54 56 55 55 55 55 56 56 57 57 56 57 55 55 53 54 54 55 54 54 53 53 53 50 51 53 52 49 46 45 44 44 43 42 41 39 44 43 49 46 47 43 45
53 54 54 52 53 54 55 57 56 57 57 56 55 54 54 53 52 51 50 51 52 52 50 50 48 47 46 44 43 43 42 41 42 42 41 36 34 38 43 45 42 40 42
55 56 54 53 53 53 54 56 57 57 57 56 55 54 52 50 49 49 49 49 50 50 50 48 46 45 44 43 42 46 42 41 40 41 44 40 38 33 32 38 40 41 42
55 55 57 57 55 54 53 54 55 55 55 54 53 52 50 51 52 52 50 50 49 49 49 47 45 43 43 42 41 40 40 40 39 38 37 36 36 35 34 32 36 40 40
54 56 55 56 54 53 53 53 55 54 53 52 52 51 51 51 50 49 48 47 46 45 44 45 43 43 42 41 40 40 39 38 38 38 36 39 38 38 37 36 32 33 36
52 53 54 56 57 54 54 53 52 51 52 52 51 50 49 48 47 46 45 45 43 42 43 43 42 41 41 41 40 39 38 37 36 35 35 37 37 39 39 37 34 34 37
56 57 57 56 55 55 52 52 51 52 51 51 49 48 49 47 46 45 44 43 43 43 43 42 41 41 41 40 40 37 37 37 36 35 36 36 37 38 40 37 35 32 34
55 55 53 52 56 54 50 50 51 51 50 49 48 48 47 47 45 45 43 42 42 44 42 41 40 40 40 40 40 37 36 36 36 36 37 37 36 36 35 35 36 33 28
53 54 52 53 52 50 50 49 49 49 49 48 48 49 46 46 45 43 42 42 42 42 41 40 39 39 39 39 39 37 37 36 35 36 35 34 34 34 33 34 33 32 31
48 49 50 52 53 53 49 48 49 49 48 50 49 46 45 45 43 42 42 41 41 40 40 40 40 40 39 39 37 37 36 34 33 32 32 33 35 34 35 32 32 31 30
49 50 51 50 50 49 50 48 47 47 47 47 47 46 45 44 42 41 41 41 40 41 40 40 40 40 39 38 36 35 34 32 31 31 31 32 36 31 30 30 29 29 30
47 47 47 47 49 49 48 48 47 46 46 46 45 44 43 42 41 41 41 41 40 41 40 41 40 39 40 37 34 34 32 31 32 31 30 30 29 28 28 28 28 29 32
46 46 48 48 48 49 46 46 46 45 45 45 44 43 42 41 40 40 39 39 40 39 40 39 40 40 37 36 35 34 31 30 31 31 30 29 28 28 28 29 28 30 29
45 45 45 46 45 44 44 45 44 44 44 43 42 41 41 41 40 39 39 39 39 39 39 40 39 37 36 36 32 32 30 29 29 30 30 30 31 35 33 31 28 27 28
45 44 44 44 43 43 43 44 43 43 43 43 42 42 42 41 39 38 38 37 36 37 39 36 37 36 37 36 36 34 29 30 30 27 29 29 31 30 33 32 32 31 27
41 42 42 42 42 42 43 42 42 43 42 41 41 41 41 40 39 39 37 35 35 35 35 36 36 33 32 36 37 36 31 28 27 26 27 28 31 30 29 29 31 31 32
41 41 42 42 41 41 42 41 43 41 40 40 40 40 39 38 38 37 35 33 33 32 32 32 32 31 33 35 35 32 26 25 26 27 27 26 26 27 28 28 27 28 29
40 41 41 41 41 41 41 40 39 39 39 39 38 38 38 37 36 37 38 37 36 34 31 31 31 30 28 34 34 29 25 25 25 27 27 27 25 28 30 27 25 26 27
42 41 41 41 39 39 39 38 37 37 37 38 38 38 37 36 35 36 36 33 31 31 31 31 30 32 27 32 33 30 21 14 23 25 26 27 28 29 29 27 25 23 27
41 41 39 38 38 39 39 37 36 36 39 38 37 37 36 35 35 34 32 30 30 31 28 26 27 28 28 25 31 31 20 21 23 23 23 25 28 29 30 29 26 26 27
38 39 37 37 37 38 37 35 34 38 39 37 36 35 35 35 35 35 34 32 28 27 20 14 19 22 24 29 29 30 29 29 19 22 24 24 29 29 28 27 28 28 26
37 38 36 36 37 37 36 34 36 37 35 37 35 32 34 32 32 31 29 29 28 23 20 19 16 17 24 22 28 28 29 28 21 24 26 27 27 26 25 26 26 25 24
36 37 36 35 34 36 36 34 35 35 35 34 34 32 32 33 32 31 31 27 22 19 23 19 16 13 20 20 21 23 21 24 23 21 20 19 23 22 23 23 23 23 23
36 35 34 34 34 35 34 34 34 34 34 33 34 31 31 31 30 29 28 28 26 24 19 19 18 9 8 18 25 28 21 16 21 13 11 14 17 18 20 20 21 21 22
34 34 34 33 33 33 33 33 36 35 33 32 32 30 29 29 28 29 29 31 31 31 33 33 23 16 24 28 30 30 28 27 25 13 7 3 5 13 17 16 17 19 18

GFSMW_sfc_temp_045.txt.gz
Temp
59 61 62 63 64 65 65 63 59 59 58 59 61 61 61 62 64 66 65 64 64 63 62 62 61 61 60 57 57 58 56 57 57 56 57 59 59 58 60 60 58 56 57
60 60 61 63 64 65 65 62 63 60 62 65 67 66 65 64 64 63 61 61 61 61 61 60 59 58 59 56 55 54 54 56 55 52 53 52 55 58 58 58 57 54 56
60 59 60 61 62 63 64 66 66 66 66 66 65 64 63 62 62 63 63 60 59 59 59 58 58 57 58 56 55 54 52 51 54 52 50 48 47 49 56 54 54 52 53
59 60 60 61 62 63 64 66 65 66 65 64 65 63 66 65 61 61 61 61 58 57 58 57 57 56 57 54 54 55 52 51 50 52 53 50 46 40 41 52 52 53 52
61 61 62 63 62 61 62 62 63 63 62 62 62 63 60 60 60 61 58 58 58 57 57 56 56 56 56 55 53 52 51 52 49 49 47 45 48 47 41 41 47 51 52
60 62 63 63 62 60 60 61 62 61 60 60 60 60 59 58 60 59 59 58 58 57 56 56 55 55 54 53 53 51 50 50 49 49 48 47 44 44 41 38 41 42 48
60 61 61 61 61 61 60 61 62 59 59 59 59 59 58 58 58 58 58 57 57 56 56 55 54 54 52 52 51 50 49 49 48 48 47 47 46 46 44 40 36 36 43
60 60 61 62 62 60 61 61 59 58 58 59 58 58 59 61 60 58 58 57 57 57 56 54 53 52 51 50 50 49 49 48 47 47 47 46 46 46 41 38 35 34 41
60 61 61 60 60 60 58 58 58 58 58 56 58 58 58 57 57 56 55 55 55 55 53 52 51 51 51 50 50 49 48 47 47 46 45 45 45 45 44 44 42 37 32
57 56 57 56 57 57 57 55 55 54 55 57 57 57 55 55 54 54 53 53 53 52 52 51 51 51 50 50 49 48 48 46 45 45 44 44 44 44 43 43 42 41 37
53 54 54 56 56 56 56 55 53 53 56 55 54 54 54 53 53 53 52 52 51 52 50 50 50 50 49 49 47 47 46 44 43 44 43 42 43 42 42 42 41 39 38
53 54 54 55 56 55 53 51 51 52 53 54 53 53 53 52 52 52 52 51 51 51 50 49 48 48 48 47 45 44 45 43 41 42 41 41 42 40 41 40 39 38 39
52 52 53 53 53 51 52 53 51 53 54 54 54 53 52 51 51 50 50 51 49 49 48 47 46 46 45 42 41 43 41 41 41 41 40 39 39 38 39 38 38 38 38
51 52 51 52 52 52 51 52 52 52 53 53 52 50 50 49 49 49 49 48 47 46 46 45 45 43 40 38 39 42 41 40 40 39 39 39 38 38 37 36 35 35 33
50 50 50 51 51 50 51 51 52 52 51 50 50 49 49 49 49 48 47 47 45 45 45 43 41 37 39 41 41 41 40 39 39 39 38 38 36 34 34 35 34 34 32
49 49 49 48 48 49 49 49 49 50 49 48 48 49 48 48 47 46 45 44 44 43 43 41 39 41 43 37 37 38 39 38 37 36 36 37 34 35 32 31 31 32 29
48 46 47 48 48 48 48 48 48 48 47 47 48 47 46 45 45 45 45 44 43 42 41 41 41 40 40 36 36 33 38 36 35 35 34 34 34 33 33 32 31 32 32
47 47 48 47 48 48 48 46 47 46 45 45 45 45 45 43 44 43 43 43 42 42 42 41 39 39 39 35 34 32 36 35 34 34 34 33 32 32 30 32 31 32 34
48 48 49 48 47 46 45 45 45 44 43 42 42 42 43 43 42 42 41 42 40 39 39 38 38 38 37 34 33 33 34 33 32 33 33 32 31 30 30 29 28 30 32
48 47 47 46 46 44 44 43 42 41 40 40 41 42 43 41 40 40 40 41 41 39 39 37 37 34 35 32 33 33 32 29 31 32 33 30 30 29 29 28 27 25 29
46 46 46 45 44 43 43 41 41 39 40 41 41 41 41 40 41 40 40 40 38 37 33 32 35 35 34 33 31 32 31 30 29 30 30 31 28 29 29 29 28 26 28
44 45 44 43 43 43 41 41 39 41 40 40 39 39 39 38 38 39 39 38 35 33 30 30 32 34 33 31 31 31 31 31 29 28 29 29 28 27 27 27 27 26 26
44 43 42 41 42 42 41 38 40 40 38 38 36 38 39 39 39 37 37 36 36 33 32 31 32 32 34 34 30 30 29 30 28 29 28 26 25 25 26 25 25 25 25
42 42 41 39 39 40 39 39 39 38 38 35 37 38 37 37 37 36 36 35 34 33 32 31 31 31 32 33 33 32 32 29 28 27 27 23 23 23 24 26 26 25 24
41 40 38 38 38 38 38 38 38 38 37 35 34 34 34 34 35 36 36 35 36 34 32 32 32 30 30 32 31 30 30 30 28 24 25 25 23 23 24 25 24 24 23
39 38 38 37 37 36 36 37 39 39 36 33 33 33 32 34 34 34 35 34 33 32 33 33 32 32 30 29 30 31 31 29 26 26 23 21 20 20 21 22 22 22 20

GFSMW_sfc_temp_048.txt.gz
Temp
72 73 73 74 75 73 72 71 68 66 63 62 62 64 68 69 71 75 72 72 72 70 69 72 70 69 66 64 64 64 63 63 64 60 64 65 67 65 67 67 66 64 64
70 69 72 73 73 72 72 72 72 71 73 74 76 75 74 76 75 74 70 70 69 68 69 68 68 66 66 64 62 61 60 62 63 57 57 57 62 67 66 65 63 61 62
69 69 70 72 72 71 73 75 75 75 75 76 75 74 72 73 73 72 72 69 68 68 67 66 66 65 65 63 61 61 58 57 60 60 55 51 51 55 61 61 62 60 60
71 71 72 73 73 73 75 76 75 76 74 74 74 72 75 73 71 73 71 72 67 67 67 66 65 64 63 61 61 62 58 58 55 58 60 57 54 46 46 56 58 60 59
71 72 73 74 75 72 73 73 74 73 72 71 72 72 69 70 71 72 67 67 67 66 66 65 63 63 63 62 59 58 57 58 55 55 55 55 54 54 46 43 50 56 58
71 73 74 74 72 70 70 71 71 71 70 70 70 69 67 66 69 68 66 67 67 67 65 65 64 63 62 60 59 58 57 56 55 55 53 48 44 43 42 42 43 45 51
71 71 71 71 71 70 70 71 71 69 69 69 68 67 66 65 65 64 66 64 65 65 65 64 62 62 61 59 58 57 55 55 53 53 51 51 50 49 47 44 43 43 49
71 71 72 71 71 70 71 70 70 68 68 67 66 66 66 69 67 65 64 64 64 63 63 62 61 60 59 58 57 56 55 54 53 52 51 51 51 50 48 45 42 39 45
70 70 71 71 71 70 68 68 68 67 65 61 62 62 64 63 63 63 63 63 62 62 61 60 59 59 58 57 56 55 53 53 52 50 50 50 52 50 51 50 48 42 37
69 70 70 68 69 68 67 65 66 63 62 62 60 62 63 63 62 61 60 60 60 60 59 59 59 58 58 57 55 54 54 52 51 52 50 50 50 50 50 50 49 48 43
67 66 66 66 66 66 65 64 64 63 59 57 58 62 63 62 61 60 59 59 59 59 58 58 57 57 56 55 53 52 52 48 50 50 49 48 49 48 49 48 48 46 45
65 65 64 64 64 64 63 59 62 58 55 59 63 62 61 60 60 59 59 58 57 57 56 56 55 55 54 53 50 48 47 46 47 48 48 47 49 46 47 47 45 45 45
63 63 63 62 62 59 58 56 59 57 61 64 62 60 60 59 58 58 57 57 55 55 55 54 53 52 51 49 47 45 43 45 47 47 46 46 45 44 45 45 43 43 44
62 62 62 62 60 58 58 60 57 60 62 61 60 59 58 57 57 56 55 54 54 53 53 52 50 45 44 43 41 44 45 46 46 46 45 45 44 43 42 41 41 42 41
60 60 61 60 60 59 57 58 59 60 59 58 58 57 56 56 56 54 53 53 52 52 51 49 47 46 46 47 45 46 46 46 45 45 45 44 41 37 36 37 38 38 36
60 60 60 59 58 57 59 57 58 58 57 56 55 56 55 54 53 52 51 52 52 51 50 49 48 47 48 36 37 37 46 45 44 42 43 43 40 39 34 34 33 33 32
59 58 57 56 56 57 57 57 57 57 54 53 53 53 53 52 52 52 51 50 50 48 46 45 46 45 46 37 35 35 43 43 42 41 41 41 41 38 39 35 33 33 32
58 57 55 55 57 58 57 56 57 55 52 51 51 51 51 50 51 50 50 50 47 46 42 41 43 45 45 35 34 33 42 42 41 41 40 39 38 38 33 32 32 34 35
60 58 58 58 57 57 56 55 53 52 51 49 49 49 49 49 49 49 48 48 44 45 45 41 42 43 43 35 34 34 40 39 38 39 40 38 36 33 30 30 29 31 33
59 57 56 54 55 54 53 51 51 50 48 48 48 48 49 48 47 47 47 47 45 44 45 44 44 39 41 34 33 34 37 32 35 38 39 35 33 29 30 29 28 26 30
56 53 53 52 53 52 51 49 50 48 49 48 48 48 48 46 45 42 44 46 45 40 37 35 39 41 40 38 33 33 34 33 33 34 36 37 30 29 29 28 28 27 29
50 51 51 51 51 51 49 49 49 51 48 47 46 46 46 46 46 43 45 44 42 37 33 33 35 39 39 35 35 32 32 33 32 32 35 34 29 28 27 28 27 27 28
50 49 50 48 49 49 49 47 48 48 46 45 44 45 46 46 46 42 42 38 39 37 35 34 35 35 37 39 33 32 31 31 32 33 31 28 28 28 29 28 26 27 30
46 48 48 47 46 48 47 47 47 46 45 44 42 38 37 41 43 42 41 38 37 36 34 33 32 33 34 37 37 35 35 31 31 33 33 30 26 28 29 31 31 30 28
44 47 46 45 46 46 46 46 45 44 43 43 41 38 37 36 37 39 40 40 41 39 36 35 33 31 31 34 33 33 34 33 32 28 31 31 31 30 31 31 30 30 29
47 45 45 45 45 45 44 45 46 45 43 41 41 38 36 36 36 36 36 36 34 33 33 33 33 35 34 33 31 31 32 31 29 30 30 29 28 27 28 28 28 29 27

GFSMW_sfc_temp_051.txt.gz
Temp
78 79 80 81 83 81 79 72 67 70 70 70 71 71 70 70 72 75 74 74 74 73 71 73 71 70 69 67 66 65 63 63 65 62 63 64 66 68 69 69 68 67 66
76 76 77 77 77 76 74 69 71 71 75 78 78 76 75 76 78 76 73 73 72 71 72 69 70 69 67 66 65 62 61 62 63 58 58 54 58 65 65 64 65 65 66
75 75 76 73 71 69 73 74 77 77 79 79 78 78 77 75 74 73 73 71 71 71 70 69 67 66 66 65 63 62 60 57 60 60 56 50 49 55 60 60 62 61 62
76 76 76 75 75 76 78 80 79 79 79 79 77 74 74 71 72 73 74 74 70 70 69 68 67 65 65 63 63 63 60 58 55 58 61 59 56 48 46 55 57 59 60
76 75 76 77 78 77 77 78 79 78 77 76 76 74 74 74 74 71 69 70 69 69 68 68 66 65 64 63 62 60 59 59 56 56 55 54 54 53 47 44 48 53 56
76 77 78 78 76 75 74 75 76 75 75 74 73 72 70 70 71 70 67 69 69 70 69 68 66 65 64 63 62 58 56 56 54 55 52 51 47 46 45 42 45 46 51
75 76 75 76 74 73 73 74 75 73 73 72 71 70 69 67 66 67 67 66 67 67 66 66 64 64 63 62 60 58 55 56 53 52 51 52 51 51 48 45 43 43 49
75 76 76 76 75 73 73 74 74 73 72 71 69 69 67 69 68 67 66 65 65 65 65 63 63 62 62 61 60 56 55 55 53 52 51 51 51 50 50 46 44 40 44
74 76 76 76 75 74 73 73 73 72 70 67 66 65 66 63 63 65 65 64 64 64 63 62 61 61 60 60 59 55 55 53 52 52 50 51 50 51 52 50 48 43 37
74 75 76 74 75 74 73 72 72 70 66 66 64 62 61 65 65 64 63 62 62 62 61 60 59 59 59 59 58 55 55 52 51 52 51 51 51 51 50 49 49 48 45
74 75 75 74 74 73 70 68 69 67 66 62 61 59 64 65 64 63 62 61 61 60 59 58 58 57 57 57 56 53 52 51 50 51 49 49 50 48 48 49 48 47 47
75 75 73 71 70 69 68 68 66 63 60 59 59 64 64 64 63 62 61 61 59 59 58 57 57 56 56 56 53 51 52 49 46 47 47 46 48 46 47 48 46 46 47
73 72 70 68 68 68 66 65 62 58 56 64 64 64 63 62 61 61 60 59 58 57 56 56 55 55 53 50 49 48 48 46 46 46 46 45 45 45 46 46 45 45 45
70 69 68 68 68 65 64 62 60 62 64 64 63 62 61 60 60 59 58 57 57 55 55 55 54 49 47 49 48 46 45 45 46 46 46 46 46 44 42 41 40 41 40
68 68 67 67 66 64 63 64 62 63 63 61 61 60 60 59 58 57 57 56 55 55 56 54 51 49 48 48 47 47 46 46 46 47 47 47 43 39 38 38 38 37 36
68 68 67 66 64 64 62 62 62 61 61 60 58 59 58 56 56 56 55 55 55 55 54 50 48 47 48 37 38 38 45 46 45 44 45 45 43 42 38 37 35 34 33
67 66 65 65 64 63 63 60 61 60 58 57 57 56 55 54 54 55 55 54 53 53 50 47 47 45 46 38 37 36 43 44 44 44 43 43 44 40 40 37 35 35 35
66 65 65 64 63 62 60 60 60 59 56 55 55 55 54 53 54 53 53 53 53 51 48 46 46 42 42 37 36 35 41 44 44 43 42 41 41 38 33 34 33 33 34
67 66 65 63 62 60 59 59 58 58 55 54 53 53 53 52 52 51 51 51 51 49 46 46 45 44 40 36 35 35 40 41 40 40 42 41 39 33 31 30 29 30 33
67 65 64 62 58 57 58 56 56 55 53 53 52 53 52 51 50 50 48 48 49 49 46 44 44 38 42 36 35 35 38 35 35 39 40 35 33 30 30 28 28 26 30
64 63 59 56 58 56 55 53 54 53 54 53 52 52 52 51 50 49 48 47 47 45 40 36 40 41 40 39 35 34 35 34 34 35 37 38 31 30 29 29 29 28 29
58 56 56 54 55 54 53 52 52 55 53 51 50 50 50 50 50 48 48 47 44 40 35 34 35 39 40 37 35 34 33 34 33 33 35 36 31 30 29 29 30 28 28
55 56 53 51 52 53 52 49 50 51 50 49 48 48 47 46 47 47 46 43 40 37 35 35 35 36 38 40 35 35 33 32 31 34 34 31 31 31 31 32 30 28 31
51 48 46 49 50 52 50 50 50 50 49 47 47 47 44 42 42 44 44 42 39 38 37 36 35 35 37 37 39 34 34 32 32 33 34 33 31 30 29 31 33 33 31
43 48 49 49 49 49 49 50 50 49 47 47 47 45 44 40 38 38 39 40 42 40 38 38 37 34 33 36 35 34 35 35 33 30 32 33 33 32 33 33 33 33 32
46 48 48 46 48 50 50 50 51 50 47 44 44 44 42 38 37 36 37 38 36 35 35 34 34 35 35 35 34 33 32 32 32 31 30 30 31 30 30 30 31 31 31

GFSMW_sfc_temp_054.txt.gz
Temp
78 78 79 78 78 75 71 66 64 65 65 64 63 65 64 65 65 67 68 68 67 67 64 63 62 61 59 57 57 55 53 52 53 50 52 51 55 54 55 54 55 58 60
74 75 75 75 76 73 66 66 68 66 68 70 70 69 67 66 67 67 66 66 66 65 65 62 60 59 57 57 55 53 50 50 51 48 47 44 48 51 55 52 54 52 53
72 73 74 72 72 67 67 70 70 70 71 73 71 70 69 66 66 65 64 65 66 66 64 62 59 57 56 54 53 53 51 47 49 50 45 43 40 46 49 50 49 49 49
76 75 72 68 68 69 68 71 72 72 74 72 70 67 66 64 64 64 65 65 65 64 64 62 59 57 56 54 53 55 50 49 46 48 53 47 45 40 38 45 47 48 50
75 74 71 70 71 71 71 73 74 74 72 72 70 67 67 65 65 65 64 64 63 63 63 61 59 57 55 54 53 53 51 48 46 46 44 44 43 43 39 35 39 45 46
74 74 75 75 73 71 70 71 72 72 71 70 69 68 64 62 61 60 59 61 61 61 61 62 58 56 55 54 54 52 50 48 47 46 45 43 40 40 38 36 37 37 42
72 72 72 72 71 69 69 70 71 70 69 68 67 65 62 61 61 62 59 58 58 57 57 57 55 54 54 53 53 51 49 47 45 44 43 44 43 44 43 40 35 35 39
72 72 72 71 70 69 69 70 70 69 68 66 64 63 63 61 60 59 59 57 56 56 57 55 54 54 53 52 51 50 48 47 44 45 44 43 44 44 43 41 35 30 36
71 73 73 71 70 69 68 68 70 69 67 63 62 61 60 59 59 59 58 56 56 59 54 53 53 52 52 51 50 48 48 46 44 43 44 43 44 44 43 42 40 34 30
72 73 73 71 71 71 70 68 69 66 63 62 60 59 58 59 59 58 57 56 55 55 53 52 51 51 51 50 49 47 47 45 44 45 43 42 42 43 43 40 40 38 35
71 72 73 72 72 68 68 67 67 63 62 59 58 57 57 59 59 57 56 55 54 54 53 52 51 51 50 50 48 47 47 45 44 42 42 42 43 41 40 39 39 38 38
73 73 73 70 70 68 66 65 64 62 60 59 57 56 58 59 57 56 56 55 53 53 52 52 51 51 50 48 46 44 44 43 41 41 42 41 46 40 39 38 37 36 37
73 73 72 69 68 67 65 64 61 59 59 58 56 58 58 57 55 55 55 54 52 52 51 51 49 49 46 44 44 43 43 41 42 43 41 41 39 37 37 34 34 34 38
73 72 69 68 66 66 64 61 59 58 58 59 60 57 56 55 54 53 53 52 52 50 50 50 50 47 45 45 45 46 43 40 41 41 41 41 40 35 33 34 31 34 30
71 69 68 66 66 63 61 61 59 59 61 59 58 55 55 55 54 52 52 52 51 51 50 49 47 46 45 47 42 43 40 41 40 42 43 41 39 41 35 34 30 29 28
69 69 68 67 65 62 61 61 59 60 59 58 55 55 54 53 51 51 50 50 50 50 49 47 45 43 47 39 39 38 38 40 39 37 38 38 40 37 37 36 35 32 26
68 68 67 66 63 62 62 59 60 58 57 55 55 55 53 52 50 51 51 49 47 47 46 44 43 42 42 39 37 37 37 36 36 35 35 37 42 35 32 34 34 32 34
68 67 65 64 63 62 60 58 59 57 55 54 53 53 52 50 50 50 49 48 47 45 44 41 42 40 41 36 35 36 35 34 35 35 35 34 33 28 30 28 27 28 30
67 66 65 62 61 59 59 58 56 56 54 52 52 52 50 49 49 48 46 45 44 44 42 42 40 39 35 35 36 35 32 33 32 34 34 35 32 31 32 27 24 26 28
67 64 62 61 58 57 57 55 53 53 51 52 51 50 50 49 48 46 45 44 42 43 41 39 38 38 36 36 36 34 29 28 30 32 33 32 29 30 30 22 20 21 25
64 62 59 56 56 55 53 50 50 51 53 52 50 50 50 48 47 46 45 43 42 40 35 33 34 35 35 34 36 36 30 28 29 30 29 29 31 31 31 30 23 23 26
56 57 55 54 53 51 49 49 49 52 51 50 49 48 48 47 47 43 43 44 40 35 31 31 32 32 34 36 35 35 34 33 27 29 29 30 32 32 31 29 30 31 27
54 55 51 48 48 50 50 47 47 50 49 48 47 47 48 46 44 41 39 38 37 32 31 33 31 31 33 32 37 35 34 33 28 29 31 32 32 32 30 32 32 27 23
47 46 44 45 47 50 50 48 49 49 48 46 45 45 43 42 41 40 38 35 35 31 32 32 31 30 30 30 31 30 32 33 31 29 30 28 27 26 26 25 27 25 24
44 46 46 46 47 49 47 48 50 49 46 45 44 42 41 39 36 38 37 35 35 34 32 32 30 27 26 29 31 31 29 29 30 26 25 24 26 26 25 25 25 24 24
45 46 48 46 46 48 49 50 50 50 46 42 41 37 35 35 36 36 35 37 36 35 36 35 32 30 34 35 35 34 34 33 32 24 22 21 22 26 23 21 22 22 22

GFSMW_sfc_temp_057.txt.gz
Temp
69 71 71 70 70 64 63 61 60 60 60 58 57 57 56 56 57 59 61 61 61 61 58 56 55 55 54 52 52 50 49 47 46 45 46 46 47 50 48 48 48 50 54
66 69 68 67 66 62 61 61 61 61 61 61 60 59 58 58 58 59 59 60 60 60 60 56 55 54 52 51 50 48 46 46 47 43 41 38 44 45 49 46 48 45 50
64 66 67 61 61 60 61 62 62 62 63 63 63 60 59 58 57 57 56 59 60 60 58 56 54 53 51 49 48 48 47 44 45 46 43 37 35 38 43 45 43 43 44
68 68 63 60 61 61 62 64 64 63 64 64 62 60 57 57 56 56 57 58 60 59 59 57 55 54 52 51 49 51 47 45 43 44 49 43 40 35 34 40 43 43 45
67 64 63 63 62 62 61 63 63 64 64 66 62 60 57 58 60 61 60 59 60 60 59 57 54 53 51 49 48 48 47 45 43 42 41 40 39 39 35 34 35 39 41
66 66 64 64 62 61 61 61 62 65 63 62 60 58 56 55 54 54 57 56 56 55 54 55 52 51 50 49 48 47 46 45 43 43 41 40 39 38 37 33 33 34 37
62 62 62 61 61 60 60 61 62 61 61 60 58 56 55 55 54 54 55 55 53 53 52 51 49 48 49 48 48 46 45 45 42 41 41 41 43 42 42 40 35 32 35
63 62 62 61 60 61 61 61 61 61 60 58 56 56 55 53 56 57 55 53 52 52 50 49 49 48 48 47 46 44 43 43 41 41 41 40 41 43 44 40 37 29 31
61 63 62 62 61 60 61 60 60 60 59 56 55 54 54 56 56 56 55 54 51 54 49 48 47 47 47 46 45 43 43 42 41 41 41 41 41 42 43 40 40 35 25
61 63 63 62 63 63 61 60 63 61 57 54 53 55 56 57 56 55 54 52 49 50 48 47 47 46 46 46 43 41 42 40 39 40 39 40 39 39 38 38 40 37 35
62 61 62 64 65 65 65 59 59 60 56 53 53 55 56 57 57 55 51 50 49 49 48 48 47 47 45 43 42 41 41 40 39 38 38 38 39 38 38 39 38 34 31
63 62 62 65 65 64 62 59 58 55 52 55 55 55 56 56 55 53 50 48 48 48 48 48 47 47 44 43 41 40 40 38 37 37 38 40 43 38 36 33 31 30 30
63 62 63 63 63 61 60 57 55 54 55 55 55 55 54 54 51 48 48 48 48 47 47 48 47 46 43 42 41 41 40 39 38 38 37 37 36 32 31 31 29 29 34
65 64 64 63 61 60 56 55 52 52 55 56 55 53 52 51 49 49 49 48 48 48 47 47 46 44 42 42 42 42 39 38 38 38 38 38 36 33 31 32 29 30 27
61 62 60 57 55 54 53 53 52 53 56 55 54 50 49 48 48 47 47 48 48 48 47 46 44 43 43 44 40 40 40 37 36 37 39 38 38 41 34 32 27 27 25
61 60 58 58 56 55 54 54 52 54 52 51 50 50 49 48 47 47 47 47 47 46 45 43 42 41 44 40 39 37 35 37 36 34 34 35 38 37 36 35 35 31 25
60 59 59 58 57 57 56 52 51 51 49 51 50 48 49 47 47 49 48 46 45 43 41 41 41 39 39 39 37 36 33 35 35 32 31 34 37 33 30 32 32 30 32
59 57 56 54 53 53 51 51 51 50 50 49 50 50 49 48 48 46 45 44 42 41 39 39 39 37 39 38 36 36 32 31 32 31 31 30 29 29 29 28 26 26 27
55 54 54 53 51 51 50 51 49 50 48 48 47 49 48 46 46 44 42 41 40 39 38 38 36 35 33 36 35 34 29 30 30 32 31 31 28 32 32 27 23 25 25
55 53 51 50 48 47 48 47 45 45 46 48 48 48 46 45 44 42 41 41 40 40 38 37 35 36 33 35 36 34 27 25 28 29 30 32 29 31 30 22 18 18 23
51 51 48 45 45 46 47 46 46 45 48 49 47 47 46 45 44 39 39 39 37 36 32 31 31 32 32 32 36 36 29 27 28 28 27 27 31 31 32 31 23 20 25
47 46 44 44 45 46 47 46 44 48 48 47 46 45 45 45 44 39 38 37 33 31 29 30 30 28 31 34 35 36 35 32 26 28 27 28 32 33 33 30 30 31 27
43 44 43 44 46 48 47 44 45 46 45 44 43 43 44 43 41 37 33 30 29 27 28 27 26 27 29 29 35 35 35 34 28 28 28 32 33 33 30 31 32 28 22
41 44 44 44 45 47 47 45 45 45 45 42 41 40 38 38 37 35 34 30 25 26 30 30 30 29 29 28 28 28 30 33 31 28 28 26 26 24 25 25 27 23 20
43 45 43 42 42 43 43 44 44 43 42 41 39 37 36 34 32 33 31 30 31 32 32 29 30 28 27 30 31 28 30 31 29 27 25 23 22 23 25 24 24 23 22
44 43 42 42 43 43 43 44 45 44 41 38 36 32 31 30 30 29 31 35 35 33 35 35 34 32 32 34 35 34 34 33 32 25 16 14 12 16 22 24 22 21 20

GFSMW_sfc_temp_060.txt.gz
Temp
65 66 68 70 68 63 63 62 60 59 59 57 56 55 54 55 55 56 59 59 58 57 55 54 53 52 51 50 50 48 47 45 44 43 43 43 45 45 45 45 45 47 49
65 67 68 66 62 61 61 60 61 60 60 60 57 57 56 55 56 56 57 58 57 56 55 53 52 52 50 49 48 47 44 44 44 43 39 38 40 43 47 44 45 42 45
63 64 64 60 60 60 59 60 60 60 61 61 60 57 56 55 54 54 54 56 57 57 56 55 52 51 49 48 47 46 45 43 43 43 42 37 34 36 41 43 42 41 42
65 62 60 60 61 60 59 61 61 61 61 60 59 57 54 54 53 53 54 55 57 56 56 54 52 50 49 48 46 48 45 43 42 42 46 41 39 34 32 39 42 41 43
64 60 59 60 60 60 60 60 60 60 61 61 59 58 54 54 54 54 54 55 55 55 56 53 51 49 48 47 46 46 45 43 42 40 40 38 37 36 34 33 34 38 40
61 61 61 61 60 60 58 59 59 60 61 59 58 56 55 53 53 52 52 54 54 54 53 52 49 48 47 46 45 44 44 43 41 41 39 39 37 36 34 35 34 32 36
59 59 58 59 58 58 59 58 59 58 57 56 55 54 53 53 53 52 54 54 53 52 52 51 47 46 46 46 45 43 42 42 40 40 39 39 39 39 39 38 38 35 33
61 60 59 58 59 58 57 59 59 56 56 56 54 53 53 52 53 54 54 52 52 50 49 48 46 46 45 44 43 41 40 40 39 39 39 39 39 39 39 38 37 34 29
59 59 59 59 58 57 57 57 58 57 56 54 53 52 54 55 52 54 54 52 52 51 48 46 45 45 45 43 43 39 39 39 38 37 37 37 38 38 38 39 38 32 25
58 59 60 60 61 61 59 57 58 57 54 53 52 54 55 55 54 52 53 51 51 50 47 45 45 45 43 43 42 39 39 39 37 39 37 37 38 37 36 39 39 37 33
59 59 61 61 61 61 59 57 56 54 53 51 51 54 54 54 54 53 50 51 49 47 46 46 46 45 44 43 41 40 39 38 37 37 37 38 38 37 40 38 37 33 33
61 61 61 60 59 59 55 55 56 56 54 55 55 54 55 54 53 52 50 49 47 46 46 46 46 46 44 42 41 40 40 39 37 37 36 37 42 35 33 31 30 29 29
60 60 60 60 60 58 55 54 54 54 55 55 55 53 53 52 50 49 48 47 46 45 45 46 46 45 43 41 40 40 40 38 37 37 36 36 35 32 30 30 29 28 33
61 58 59 60 57 55 54 54 53 54 55 55 54 51 50 49 48 47 45 46 46 45 47 46 45 44 41 41 41 41 38 37 37 37 36 36 35 32 31 31 28 29 26
57 56 55 54 52 51 51 52 52 53 52 50 48 46 47 48 46 45 44 45 47 46 45 44 43 42 41 42 39 39 37 35 35 35 37 37 36 39 34 31 27 27 25
56 55 54 53 51 50 50 51 50 49 50 48 48 48 46 45 46 44 47 46 46 45 43 42 40 39 42 42 40 38 34 34 34 34 34 35 37 37 37 36 34 30 25
55 55 54 53 52 51 52 49 48 48 48 48 48 46 45 45 45 48 46 45 43 42 41 40 39 38 38 39 39 37 32 31 31 31 31 33 35 33 31 33 32 31 31
54 53 53 50 49 49 48 48 49 49 48 47 45 45 46 47 46 45 44 42 41 40 39 38 37 36 37 39 38 36 30 30 31 30 31 30 29 29 29 28 27 27 27
49 48 48 48 48 48 48 47 46 46 45 43 46 48 46 44 44 42 41 40 39 38 38 38 36 35 33 36 36 34 30 30 30 32 31 30 28 31 33 28 25 26 26
48 47 46 46 45 44 46 45 43 44 43 45 46 46 45 44 42 40 39 38 36 37 36 35 34 35 33 35 36 35 27 29 29 30 30 33 29 31 31 24 21 20 23
44 45 44 43 43 44 46 45 45 43 47 46 45 45 45 43 42 39 37 35 33 31 30 30 30 31 32 31 36 36 29 30 29 29 28 28 32 32 32 32 24 21 25
42 44 43 42 43 47 46 42 43 45 45 45 44 43 42 42 42 37 36 35 31 29 25 24 27 30 30 33 34 36 36 33 28 28 29 28 32 33 32 31 30 31 27
41 43 43 44 45 46 46 43 41 43 43 42 41 41 41 40 39 35 33 30 29 26 26 26 27 27 29 28 33 35 35 34 30 30 29 31 32 33 31 32 32 28 23
42 45 44 43 43 43 43 43 43 42 42 40 40 39 36 36 35 34 32 29 27 26 28 28 28 27 27 28 29 30 30 33 33 29 29 28 27 22 23 23 27 24 21
43 44 43 41 41 42 41 41 42 42 40 38 37 36 34 33 32 33 32 31 32 32 30 30 29 25 25 28 32 31 28 27 29 30 28 26 25 24 23 23 23 23 23
43 42 41 40 40 40 40 39 40 39 37 35 35 32 31 32 32 31 33 34 35 34 35 36 33 31 32 34 35 35 35 34 32 28 21 21 20 20 21 20 21 22 21

GFSMW_sfc_temp_063.txt.gz
Temp
63 63 64 63 63 61 61 60 59 58 58 56 55 54 53 53 54 55 57 57 56 56 54 52 52 51 50 49 49 46 46 44 43 42 42 42 42 43 43 43 43 46 47
59 61 61 61 60 59 60 58 60 58 58 59 56 56 54 54 54 55 55 56 55 55 54 52 51 50 48 48 47 46 43 43 42 41 38 37 40 42 44 42 44 42 43
60 62 62 60 58 58 58 59 59 59 59 58 58 54 54 54 53 52 52 54 55 55 54 52 50 49 48 46 45 44 44 42 42 42 41 36 33 35 39 41 40 41 40
63 64 63 58 58 60 59 59 59 59 59 58 57 56 53 52 52 52 52 53 55 55 54 52 50 48 47 46 46 46 43 42 41 40 44 40 39 34 32 37 39 39 41
63 62 63 61 60 59 58 58 59 59 60 59 58 55 52 52 51 52 52 52 52 53 53 51 48 47 46 46 45 44 43 41 40 39 38 37 36 35 33 30 33 37 39
58 60 61 60 60 59 58 58 59 59 59 58 57 55 53 52 51 50 50 49 49 50 51 52 48 47 49 46 44 42 42 41 40 39 38 38 36 35 33 30 32 31 35
56 57 57 59 60 59 58 58 59 57 58 57 55 54 53 52 52 50 49 48 48 50 51 50 49 49 45 44 44 42 40 39 38 38 38 38 38 38 37 35 33 37 38
59 58 58 58 59 59 58 58 57 55 55 54 53 52 52 50 50 51 49 50 51 49 48 48 49 47 45 43 41 39 39 38 37 37 37 37 37 38 38 36 33 32 35
58 58 58 58 58 57 57 56 55 54 53 52 52 52 54 54 53 53 52 48 49 50 48 48 45 44 43 42 40 38 38 38 38 37 36 36 37 36 36 37 37 35 30
57 58 57 57 57 58 57 55 56 55 53 53 56 55 54 54 54 52 50 50 49 49 48 46 45 44 42 41 42 39 38 38 36 37 36 35 35 36 35 35 35 33 31
55 57 58 58 59 58 56 56 56 54 52 52 53 54 53 53 52 51 50 48 48 48 47 45 44 43 43 42 40 39 39 38 36 36 35 36 36 35 36 37 35 34 30
56 58 58 58 57 56 56 56 55 54 53 53 52 51 51 50 48 48 47 49 45 47 45 44 44 44 43 41 39 38 39 37 36 36 35 36 40 35 33 31 30 29 28
56 56 56 57 57 56 52 50 50 49 54 54 53 50 51 47 49 49 47 45 46 45 44 44 43 43 42 41 39 39 38 38 36 36 35 35 34 32 30 29 29 28 32
57 56 56 55 53 51 50 50 51 53 53 52 52 50 49 49 47 45 46 45 45 44 44 43 43 42 42 40 40 40 38 36 36 35 35 34 33 32 32 31 29 29 27
55 54 53 51 49 49 50 52 52 53 52 52 50 48 47 47 44 45 43 43 46 44 43 42 42 41 41 41 39 38 36 35 34 33 35 35 38 39 35 33 29 27 25
54 53 53 50 49 49 50 50 50 49 50 47 45 45 44 45 45 45 44 44 43 42 41 40 40 39 41 40 40 38 34 34 33 31 32 35 35 35 38 37 34 29 25
51 51 51 50 49 49 50 48 46 47 46 44 44 45 46 46 45 46 45 42 40 40 39 38 38 37 36 39 40 39 33 32 31 30 30 31 35 34 32 34 34 33 32
49 49 49 48 47 46 46 45 46 45 44 43 44 45 44 45 45 44 42 40 39 38 37 36 36 35 36 38 39 38 32 30 30 33 31 30 30 30 30 28 27 27 28
44 44 45 45 45 45 45 45 43 43 43 44 44 45 45 44 43 41 39 38 37 36 35 35 34 33 33 36 37 36 30 29 29 32 31 31 29 32 34 28 25 26 27
44 43 43 44 43 43 45 44 41 43 42 45 46 45 45 42 41 40 38 36 35 35 33 32 32 33 31 35 36 35 30 29 29 29 31 33 31 32 32 24 21 20 24
42 43 43 42 42 44 45 42 42 43 45 45 45 44 44 42 40 38 36 35 33 31 30 30 30 29 31 31 35 36 34 30 28 29 29 29 32 33 33 32 24 22 26
41 43 42 42 41 43 44 42 41 43 44 44 43 42 41 40 40 36 35 34 31 29 27 22 26 28 29 32 33 35 35 34 29 29 29 29 32 33 33 31 31 31 27
40 42 42 44 44 45 45 41 42 44 42 41 40 39 40 38 37 34 33 31 30 27 28 27 27 28 28 29 33 34 34 34 32 31 31 32 32 32 31 32 31 28 23
39 43 44 42 42 43 42 42 41 40 40 38 38 37 34 35 34 33 33 30 29 29 30 29 28 29 28 27 28 29 29 33 31 31 32 30 29 29 29 26 28 26 21
42 43 42 41 40 40 37 37 38 37 35 33 33 32 32 31 31 32 31 33 34 33 34 32 31 30 27 29 31 29 27 27 29 28 28 27 27 26 26 25 25 24 21
42 41 39 37 36 36 34 35 35 34 32 31 31 30 30 30 30 29 31 35 35 35 35 35 34 35 34 35 35 35 34 34 34 28 27 26 26 24 24 24 23 22 20

GFSMW_sfc_temp_066.txt.gz
Temp
62 62 61 61 60 59 59 58 57 56 57 56 54 53 53 53 53 57 57 57 56 54 53 51 50 50 49 48 48 46 45 44 43 43 43 42 43 43 43 44 45 46 47
57 59 59 58 59 59 59 58 58 57 57 59 54 55 53 53 54 56 56 55 55 54 53 51 50 49 47 47 46 45 43 43 42 41 39 38 41 42 43 42 45 43 44
57 58 59 58 58 59 58 59 58 57 58 57 56 54 54 53 52 51 52 53 54 53 52 51 49 47 47 46 45 44 44 42 42 42 41 36 35 36 40 41 41 42 42
59 59 59 58 58 59 58 59 58 58 57 57 56 56 54 53 53 51 51 52 53 52 52 50 48 47 46 47 45 48 43 42 41 41 43 40 39 36 34 38 40 40 42
59 59 60 60 59 57 57 57 57 58 58 58 57 57 56 52 51 50 51 50 50 51 50 49 48 50 46 47 45 43 42 41 40 39 39 38 36 36 34 31 35 38 40
58 60 58 57 56 56 55 56 57 58 58 57 57 57 54 51 49 49 48 48 48 48 49 52 50 46 49 48 44 42 42 40 39 39 38 38 37 36 34 31 32 33 37
55 56 55 57 56 57 56 57 58 57 58 57 58 57 53 51 51 49 47 47 47 47 48 50 49 49 48 46 42 41 40 39 38 38 38 38 38 38 37 35 34 33 35
57 57 57 57 57 58 58 58 58 58 57 57 57 54 52 51 50 49 48 48 48 49 49 48 48 47 47 43 43 40 39 38 38 38 37 38 38 38 37 36 36 34 35
56 57 57 57 57 57 58 58 59 57 56 55 52 51 50 50 50 51 52 50 47 50 48 46 45 46 46 44 40 39 39 38 37 37 38 37 37 37 37 38 37 36 32
55 56 56 57 58 58 60 59 57 55 52 51 51 50 50 52 54 51 49 49 48 48 46 45 46 46 44 42 39 38 38 38 37 37 36 36 36 36 36 36 36 35 32
54 56 57 57 57 58 56 55 53 52 50 50 50 51 52 50 50 49 49 49 48 46 46 46 45 45 41 42 40 39 39 38 37 37 36 36 36 35 35 35 34 33 34
54 55 56 56 55 54 54 54 53 50 48 49 49 48 49 50 49 48 48 47 46 46 44 44 45 44 42 41 40 39 40 37 37 37 35 35 39 34 34 32 32 31 30
52 53 54 54 54 53 52 51 48 47 49 50 50 50 50 49 46 47 46 46 43 44 45 45 45 43 42 41 39 38 38 37 37 36 35 34 33 32 32 31 30 31 33
52 52 52 52 52 50 49 48 49 50 51 51 52 49 49 48 47 46 45 43 45 45 45 44 43 42 41 40 40 39 37 36 36 35 34 34 33 32 32 32 32 31 29
52 52 50 49 47 47 48 49 50 50 52 51 50 47 46 46 46 45 45 45 46 45 44 42 41 40 40 41 38 37 36 34 34 34 34 34 35 38 35 33 31 30 27
52 50 50 49 48 47 48 49 48 48 50 48 45 46 46 46 45 43 44 45 45 43 41 39 39 39 40 40 39 38 34 34 34 32 32 32 36 34 37 37 36 31 28
50 49 48 47 47 48 48 46 46 48 47 46 46 46 45 45 43 45 45 43 42 41 39 38 37 36 36 38 39 39 34 33 32 31 31 32 34 34 32 34 35 33 33
46 46 45 45 45 44 44 44 45 44 45 46 45 45 44 44 44 44 43 41 40 39 37 36 35 34 35 38 38 38 34 32 31 30 30 30 31 32 31 31 29 29 29
41 41 42 42 42 42 43 43 44 46 45 44 45 45 45 44 43 41 40 39 37 36 35 34 33 32 32 36 36 35 31 30 30 31 30 30 30 32 35 29 26 27 28
40 40 41 42 41 41 44 45 44 45 43 44 45 45 44 43 41 40 39 36 34 34 33 32 32 34 32 34 36 35 29 32 32 32 30 33 31 32 33 29 25 22 26
39 41 41 40 41 43 45 41 42 43 45 45 44 44 43 41 41 38 35 34 32 32 30 30 30 31 31 31 35 36 31 32 32 31 29 30 32 33 33 33 26 25 28
40 42 41 40 40 41 43 43 42 43 44 43 42 42 41 39 38 34 34 33 31 29 28 26 29 29 31 33 34 35 35 33 31 31 31 31 33 33 34 33 31 31 28
38 41 40 40 42 44 41 39 37 39 40 40 38 36 36 34 33 32 31 30 29 28 29 29 29 31 33 29 33 34 34 34 30 33 33 32 32 32 31 32 31 30 29
39 40 41 38 37 36 36 36 37 37 36 33 32 31 30 31 30 31 31 28 26 27 30 30 30 31 32 31 29 29 31 32 32 31 32 32 31 29 29 29 30 30 28
38 39 37 35 34 35 34 35 34 34 31 31 30 29 29 28 28 30 29 30 30 29 30 30 31 30 31 33 34 32 31 30 29 25 24 29 28 26 26 26 27 27 26
38 36 36 35 33 32 31 31 32 30 29 29 28 27 27 27 27 27 27 32 33 34 34 34 32 32 34 35 36 36 36 34 31 27 26 27 27 27 27 25 25 25 25

GFSMW_sfc_temp_069.txt.gz
Temp
67 67 68 68 67 68 68 67 65 64 64 63 62 62 62 62 62 64 65 62 63 61 64 64 62 62 62 62 61 61 60 60 60 60 60 58 57 57 60 61 61 61 61
64 65 65 67 67 69 67 66 66 64 65 68 67 66 64 63 64 65 63 62 60 63 64 62 62 62 61 60 60 60 59 59 58 58 56 54 56 57 58 58 58 58 60
65 65 65 65 65 66 65 66 67 66 66 66 64 62 61 61 61 62 60 62 62 64 62 62 62 61 62 61 59 58 58 57 57 55 56 52 51 52 58 55 56 56 57
65 67 66 66 65 66 67 68 66 65 65 64 63 62 62 58 61 60 59 62 63 62 62 61 61 61 60 59 59 58 57 57 56 56 56 54 53 50 49 56 56 55 55
67 65 65 67 67 66 64 65 65 65 64 64 64 62 60 60 60 58 60 60 61 62 61 61 60 59 58 56 56 56 55 58 57 55 55 53 53 51 48 46 50 54 55
67 68 68 67 66 64 63 63 64 64 63 63 63 62 60 58 59 60 59 60 61 61 60 60 58 56 56 53 53 54 53 55 55 55 53 52 50 50 48 46 48 48 51
65 66 65 64 64 62 62 63 64 62 63 62 62 62 60 59 60 60 60 59 59 59 58 58 55 57 49 48 50 53 53 53 53 52 53 52 52 52 50 47 46 45 50
65 66 67 65 64 62 62 63 62 63 63 62 62 62 60 57 61 62 62 61 60 59 57 56 52 48 47 49 50 51 54 53 51 51 50 52 52 52 51 47 45 41 46
65 66 66 65 65 63 62 63 63 62 62 61 62 61 58 59 61 61 61 59 58 57 56 54 47 46 48 52 53 54 53 51 51 50 50 50 51 51 50 49 48 43 39
63 65 66 65 65 65 65 64 64 64 62 62 62 61 60 62 61 59 57 56 56 56 54 47 46 48 53 53 52 52 52 50 50 50 49 49 50 49 49 49 48 47 44
62 63 64 65 66 66 66 64 64 62 61 62 62 60 60 60 58 57 56 56 53 49 47 47 50 53 53 53 51 51 51 49 49 49 48 48 49 48 48 48 47 46 44
65 64 64 63 64 64 64 62 61 59 62 60 59 58 56 56 56 55 54 54 48 50 48 51 54 53 53 53 51 50 50 49 48 48 47 46 48 46 47 47 46 45 45
63 63 62 62 62 62 60 61 59 57 58 58 55 54 54 53 53 52 50 48 49 52 53 53 51 52 52 51 51 50 49 48 48 48 47 47 47 46 47 46 45 45 44
62 63 62 62 62 61 60 58 55 56 55 53 53 53 53 52 48 49 49 48 47 51 51 51 52 51 51 50 50 50 49 47 47 47 46 46 46 45 45 45 44 41 39
60 60 62 60 58 56 56 55 54 54 55 54 53 50 47 44 44 45 48 46 49 52 52 51 50 50 49 50 50 49 48 47 46 47 46 46 45 41 41 42 42 41 40
60 59 58 56 54 53 54 53 54 53 53 51 47 45 43 44 46 46 44 47 51 50 49 49 48 48 48 42 39 42 47 47 46 45 47 46 41 41 38 37 37 39 41
56 56 55 55 53 53 53 53 53 54 52 49 45 46 46 48 45 45 50 49 47 49 48 47 47 47 47 39 39 38 46 46 46 46 45 44 43 40 42 38 35 36 34
51 51 52 52 53 54 53 52 53 50 47 46 46 46 46 45 45 50 48 48 49 47 48 47 46 45 46 38 38 37 44 45 45 44 44 43 43 42 40 40 39 40 40
48 49 50 49 50 50 51 51 51 49 47 46 46 46 46 47 49 47 48 48 47 47 46 46 45 44 45 38 37 38 43 42 42 43 43 42 42 39 36 36 34 37 38
47 47 47 48 48 49 51 51 48 47 45 47 47 47 47 50 48 47 47 47 46 45 46 45 45 42 43 40 37 38 41 37 39 41 40 36 36 36 34 34 33 31 35
46 47 48 47 48 51 51 47 47 45 46 46 48 49 49 48 47 46 45 45 45 43 41 38 41 42 41 41 38 37 39 38 38 39 38 37 35 33 34 34 35 33 37
45 47 46 46 49 50 48 46 46 47 48 48 46 45 44 44 43 43 43 43 42 40 36 33 36 40 41 38 37 37 36 37 35 35 39 39 35 34 33 34 34 33 32
46 47 46 44 45 47 47 44 44 46 44 43 41 40 40 40 40 40 40 39 39 37 35 34 35 35 37 39 37 35 34 34 35 36 35 35 35 33 33 33 32 31 33
44 44 43 41 39 41 40 41 40 41 41 38 38 38 38 37 38 38 38 36 35 34 34 33 32 33 35 36 37 37 36 35 35 35 35 33 32 32 33 33 33 34 34
43 43 40 38 37 38 37 38 38 39 37 36 35 35 35 34 34 34 34 33 35 33 31 32 31 30 30 32 33 33 33 34 34 33 33 33 32 30 31 31 32 34 33
41 39 38 36 35 35 34 34 35 35 36 34 33 31 31 31 31 31 31 31 31 32 32 32 31 30 30 31 31 31 32 33 33 32 31 31 31 30 31 30 30 32 32

GFSMW_sfc_temp_072.txt.gz
Temp
74 74 74 74 75 74 74 74 73 73 73 72 73 73 69 67 68 70 71 70 66 71 73 74 71 72 71 70 68 69 67 69 70 66 68 68 65 64 66 68 67 67 66
71 73 74 73 73 73 73 74 74 73 74 76 76 75 73 68 69 74 68 70 69 70 71 71 71 71 70 68 67 67 68 69 68 63 63 61 65 64 65 66 65 64 66
71 71 73 73 73 73 73 75 76 77 76 77 77 75 74 71 70 70 65 66 66 69 72 71 71 69 70 68 67 66 65 66 66 63 62 59 58 61 67 63 64 62 63
77 75 74 75 74 75 77 78 78 77 76 76 75 71 72 70 71 68 67 66 66 70 71 71 70 69 70 68 67 67 66 63 63 66 64 61 60 56 55 65 63 62 61
78 78 77 77 78 77 77 77 77 76 75 74 73 72 72 71 67 59 59 65 67 70 71 70 69 68 69 67 64 63 62 65 62 63 62 61 60 59 54 52 57 62 63
79 79 80 79 78 76 74 73 74 73 74 72 71 71 70 66 63 58 58 65 69 69 68 70 68 68 65 64 62 57 55 59 62 62 61 59 57 56 55 53 54 55 59
79 79 79 78 77 75 73 72 73 73 74 71 70 67 68 66 65 62 62 68 67 66 67 68 66 65 64 53 49 51 61 61 60 59 60 60 58 58 56 54 52 52 57
80 79 80 79 78 74 72 73 73 73 73 71 68 68 69 68 67 64 67 68 68 68 68 66 66 64 49 48 50 57 61 61 59 58 58 59 59 59 57 54 51 47 51
78 79 80 80 77 75 73 73 74 75 72 68 68 67 67 66 66 65 69 69 70 69 65 64 60 51 48 49 54 59 60 59 58 57 57 57 58 58 57 56 55 50 44
76 78 79 79 79 78 77 74 77 76 74 71 68 66 68 68 64 66 68 68 68 65 62 57 51 47 48 55 59 60 60 58 58 58 57 56 57 57 57 56 55 54 49
75 76 77 79 78 78 77 75 76 77 75 72 68 65 66 64 63 64 64 64 62 59 55 50 49 56 58 60 59 59 59 57 57 57 56 55 56 55 55 55 55 52 52
77 77 77 77 77 76 76 76 75 75 75 72 67 64 61 59 56 56 57 57 53 52 50 51 56 58 61 60 59 58 59 57 56 56 55 54 56 54 54 54 52 52 52
77 76 75 74 75 75 74 75 73 72 71 67 62 57 55 55 54 52 52 50 50 52 51 55 58 59 59 59 59 58 57 56 56 55 55 54 54 52 53 53 52 52 52
77 77 76 75 74 73 73 72 70 69 65 62 59 56 54 53 51 49 47 46 47 48 50 53 57 57 59 59 58 57 56 56 56 55 54 54 53 52 52 52 51 51 49
75 75 76 75 73 71 69 68 64 61 59 58 55 54 53 50 46 45 45 49 52 49 50 57 58 58 57 58 57 56 55 54 54 54 54 53 51 46 45 50 49 49 45
72 73 73 72 68 66 66 61 58 58 59 58 55 54 49 46 44 43 48 47 47 52 58 57 57 56 57 44 41 43 52 53 53 52 53 54 48 45 39 38 38 40 42
66 67 68 67 66 64 63 59 58 59 57 55 52 50 47 46 49 50 50 49 53 57 56 55 55 54 55 42 40 39 50 51 52 52 52 52 53 47 49 43 37 36 36
62 63 64 64 64 65 64 62 61 59 56 54 52 52 50 47 49 54 52 52 56 54 55 54 54 53 54 42 39 38 48 50 51 51 51 50 50 50 48 48 46 45 44
60 62 63 63 62 62 62 61 57 54 53 52 50 49 49 50 54 49 52 55 55 54 54 54 53 52 52 41 39 39 48 48 48 50 50 50 49 45 41 43 40 41 42
59 59 59 60 60 60 61 56 54 53 51 51 51 54 55 47 52 54 53 55 54 52 53 52 52 47 49 43 39 40 44 41 43 46 46 42 43 39 36 39 39 35 39
57 59 59 58 59 60 60 56 54 50 52 53 50 50 53 54 53 52 53 53 52 50 47 43 45 46 46 45 39 38 41 40 40 40 41 41 38 36 35 34 37 37 41
56 58 57 57 59 59 56 55 53 53 52 53 53 52 52 50 51 50 51 51 49 46 42 36 40 44 44 39 39 37 37 37 37 38 40 42 37 37 35 34 34 34 34
57 57 56 55 55 56 54 52 53 54 52 50 48 48 47 48 48 49 48 47 46 43 40 38 39 39 41 43 38 36 35 35 36 39 38 35 35 35 34 32 32 32 33
55 55 53 52 51 53 53 52 51 51 50 47 46 46 44 45 46 48 46 44 42 39 38 37 35 35 38 39 35 34 35 35 36 36 38 37 35 34 34 34 34 34 35
53 53 51 49 48 48 48 48 48 48 45 44 43 43 43 42 42 42 40 40 39 35 34 35 35 31 30 30 31 30 30 32 33 32 36 37 38 36 36 35 34 35 34
51 50 49 47 46 45 43 44 46 46 43 41 41 38 40 39 39 41 38 31 32 31 31 30 29 30 29 28 29 28 28 30 30 34 33 33 34 34 34 33 33 34 33

GFSMW_sfc_temp_075.txt.gz
Temp
70 72 70 72 76 74 74 74 73 70 71 71 73 74 74 70 69 71 74 74 75 75 75 76 73 75 73 72 70 70 68 69 71 67 69 70 68 66 68 69 69 68 68
72 71 72 72 74 74 75 75 76 74 74 78 77 77 77 72 73 75 72 73 69 69 75 75 73 73 72 69 69 69 68 70 69 64 64 62 66 66 67 68 67 66 67
73 74 74 75 75 74 74 76 75 75 75 79 80 79 76 74 69 70 71 72 72 74 75 74 73 72 72 69 68 68 68 67 68 65 62 59 59 61 67 66 66 65 64
77 75 75 74 75 76 77 77 78 75 75 75 78 76 71 70 72 71 71 66 65 69 72 74 73 71 71 70 68 69 68 66 64 63 66 64 61 55 54 64 65 66 63
79 77 77 77 78 77 77 77 79 80 79 77 75 77 75 75 73 69 69 64 63 67 72 73 71 70 70 69 68 65 63 65 58 55 62 63 62 61 56 53 58 64 65
82 83 82 81 80 80 78 79 79 80 80 74 74 75 74 75 71 67 64 64 62 66 71 72 70 70 69 67 65 62 61 55 59 63 62 60 58 57 57 54 56 56 59
82 82 83 81 81 80 79 79 79 79 79 75 72 74 74 73 68 66 65 64 64 66 69 70 68 68 67 65 60 56 53 56 59 61 61 62 61 60 58 56 54 53 57
83 83 84 83 83 81 80 78 78 77 79 76 73 73 74 72 70 69 68 65 65 69 70 68 68 67 65 60 57 55 53 56 58 59 59 60 61 61 59 56 53 48 51
83 85 85 84 83 82 80 78 78 78 78 77 75 72 71 70 70 70 69 66 65 69 67 68 66 64 60 53 51 50 55 60 60 59 59 58 59 59 59 58 56 51 44
82 84 86 85 85 84 82 78 78 79 79 79 75 70 70 70 68 68 66 63 62 65 66 64 62 55 49 48 49 55 61 61 60 60 58 58 59 59 59 58 57 55 51
81 83 84 86 86 85 82 79 78 80 80 79 75 68 66 69 65 64 60 59 61 63 61 53 50 49 50 51 55 60 60 60 59 59 58 57 58 57 57 57 57 54 54
83 83 83 84 84 83 83 81 79 80 81 79 74 66 65 59 57 56 56 56 54 53 50 50 52 52 54 57 57 58 60 59 58 58 57 57 59 56 56 56 54 54 54
83 83 83 82 82 81 81 81 79 79 81 75 67 60 56 55 55 54 53 52 50 50 52 51 49 51 54 58 61 60 59 59 58 58 57 56 56 55 56 55 54 55 55
83 83 82 81 81 81 79 79 78 78 75 63 62 57 56 54 52 52 52 51 49 48 47 48 49 50 57 60 61 60 59 58 58 57 57 56 55 54 54 54 54 54 52
81 82 82 82 80 78 77 78 75 71 69 63 59 54 53 52 54 52 50 48 47 47 52 50 50 56 60 61 59 59 57 56 55 56 57 56 54 48 48 52 51 50 48
78 79 80 81 78 76 74 71 67 64 63 57 53 53 52 51 48 46 47 48 50 50 50 52 59 58 59 43 45 45 52 53 53 53 54 56 51 50 42 42 41 43 45
74 74 76 77 75 73 65 60 59 59 58 55 52 51 50 48 47 48 48 49 52 53 55 58 57 56 57 44 42 40 50 51 51 52 52 52 55 49 54 46 39 39 38
70 71 73 72 72 66 62 59 58 55 53 52 51 51 51 51 53 54 55 55 56 56 57 56 56 55 56 43 41 39 49 50 50 51 51 51 51 52 49 49 48 48 47
70 70 71 70 68 62 60 57 55 54 53 53 56 56 56 54 52 52 54 55 56 55 55 56 55 54 54 41 39 40 48 47 47 49 49 49 48 45 41 43 43 43 43
68 67 68 68 66 65 63 59 57 57 57 57 56 56 54 56 56 54 55 56 56 55 56 54 53 47 50 39 39 41 43 41 42 44 45 41 42 37 37 39 38 35 38
66 67 66 65 65 65 63 58 58 58 59 58 58 58 57 55 55 56 55 55 54 52 49 45 46 47 46 45 39 38 40 39 38 39 40 42 38 37 37 36 38 35 38
63 65 64 64 65 65 63 60 58 59 58 57 55 56 55 55 56 54 53 52 52 48 45 38 41 45 45 39 38 36 35 34 35 36 39 40 38 36 36 36 36 35 33
64 65 63 61 62 62 63 59 57 57 56 55 53 54 53 53 53 52 50 49 49 45 43 40 40 41 41 44 36 35 33 34 34 36 36 35 35 35 36 34 34 33 33
63 63 60 58 56 58 58 58 58 57 56 53 51 51 50 49 50 50 49 46 44 42 40 39 38 37 39 39 36 34 35 34 34 34 36 34 33 34 34 34 37 35 34
61 61 58 56 56 57 56 56 56 55 51 49 48 48 47 46 45 45 42 42 37 35 36 36 35 32 31 32 29 30 30 30 30 31 33 35 35 35 36 36 37 36 35
59 56 55 54 53 52 52 52 53 52 49 46 45 42 42 42 43 43 38 33 32 31 30 29 29 31 29 27 28 28 28 28 30 30 32 30 29 29 30 33 32 34 34

GFSMW_sfc_temp_078.txt.gz
Temp
63 63 63 65 63 61 61 62 62 62 61 61 64 66 66 64 64 66 68 68 69 69 68 67 65 64 63 62 62 60 59 58 59 56 57 57 58 57 56 57 57 59 60
65 65 67 67 65 63 63 64 65 64 65 65 70 70 69 67 65 67 67 68 68 68 68 66 65 64 62 60 60 59 58 58 58 53 53 49 52 54 57 55 57 55 57
65 66 67 67 68 66 66 68 68 68 69 69 71 71 69 66 65 64 66 68 65 64 64 67 65 63 62 59 59 59 59 55 57 57 52 48 46 48 53 53 54 54 53
71 69 68 68 69 69 70 71 72 70 71 71 71 69 68 65 66 65 67 67 65 65 68 69 65 63 62 60 59 62 58 57 53 56 60 55 52 45 43 51 52 53 54
72 70 71 71 72 71 70 71 73 72 72 71 69 69 66 66 66 66 65 62 62 62 62 64 65 63 62 61 60 58 57 56 54 52 54 54 51 49 45 42 46 51 53
75 74 74 74 73 72 70 71 73 73 72 71 70 68 68 67 66 64 62 61 61 61 62 65 64 62 62 61 58 57 55 53 53 54 54 51 49 47 45 42 44 44 48
75 73 74 74 73 72 71 72 73 73 74 70 71 69 69 68 67 65 62 60 59 60 61 63 61 61 62 58 56 53 52 53 51 53 53 52 50 51 49 45 43 42 45
78 77 75 74 75 73 72 72 73 73 75 71 70 70 70 70 68 66 62 62 62 61 62 62 62 61 59 54 53 52 52 52 51 53 51 51 52 51 49 47 42 37 40
79 80 81 77 75 75 74 72 74 75 75 73 70 69 70 69 67 63 63 64 63 63 62 62 60 57 55 53 52 49 50 49 49 51 52 51 51 49 49 48 46 41 34
79 80 81 80 78 77 77 74 75 76 75 75 72 70 68 69 67 64 64 63 61 61 60 59 55 52 51 49 49 48 49 48 51 53 52 50 50 49 48 47 47 45 41
78 79 80 82 81 79 77 76 75 76 75 75 73 70 68 66 64 63 61 59 57 55 51 51 50 49 49 49 47 48 49 52 53 53 51 50 52 48 47 47 46 44 43
80 80 80 81 81 80 78 76 74 74 75 75 73 67 64 63 61 57 56 54 52 52 50 50 50 50 51 51 49 49 52 52 52 52 51 51 55 48 47 45 44 44 44
80 80 79 79 79 79 78 76 74 74 76 74 66 63 59 58 56 55 54 53 51 51 51 51 50 50 49 49 49 52 52 53 52 51 49 49 49 46 45 45 44 44 49
80 80 79 78 78 77 77 77 73 71 66 66 61 57 56 55 53 52 51 51 51 51 50 50 49 49 49 51 53 55 53 51 51 50 49 49 48 46 45 46 43 45 40
80 79 79 77 77 76 75 75 66 63 62 59 56 53 51 51 51 50 50 50 50 49 48 48 48 49 51 54 52 53 49 47 47 48 50 49 48 46 44 46 42 41 41
78 78 79 78 76 74 72 65 62 59 58 54 51 51 51 50 50 49 48 47 47 47 48 49 49 49 53 41 44 46 46 47 46 44 46 47 46 47 43 41 40 41 40
76 75 75 76 73 65 62 58 57 56 54 51 51 50 49 47 46 47 48 47 46 47 47 48 49 51 51 42 42 42 45 44 43 42 43 45 51 44 45 43 40 38 38
73 72 73 70 64 61 58 57 57 54 51 50 49 49 48 47 47 48 48 47 49 49 49 50 52 50 50 42 41 39 42 42 42 42 42 42 41 41 39 37 36 37 39
71 71 71 66 63 59 58 54 53 52 51 49 49 49 49 49 49 50 51 51 51 51 50 50 49 48 42 39 38 40 40 40 38 42 41 40 37 39 40 34 33 34 35
69 69 68 61 59 58 56 54 51 51 50 51 51 53 53 52 51 51 51 52 52 52 51 49 45 43 39 38 38 39 33 33 32 35 38 37 36 36 36 33 32 31 33
67 68 66 63 60 58 57 54 53 53 55 57 55 54 53 53 53 52 51 51 49 45 38 36 38 41 40 37 37 36 32 30 30 30 31 32 36 36 36 35 33 32 34
64 65 63 63 63 62 59 56 56 58 57 55 54 55 54 54 54 50 49 49 45 39 35 33 35 36 37 34 35 35 33 32 29 29 30 31 35 35 35 34 35 35 33
63 65 63 60 60 61 60 57 56 57 55 54 53 52 52 52 52 49 45 42 42 37 34 33 32 33 34 31 34 34 33 33 28 29 31 33 33 33 32 34 35 34 31
63 63 60 58 56 59 59 56 56 55 54 51 49 49 48 47 47 47 44 38 36 34 33 32 31 30 32 28 28 28 27 30 29 28 27 28 29 30 32 31 33 31 33
62 61 58 55 54 56 56 56 56 54 51 48 47 45 43 42 39 36 34 32 31 31 31 30 30 27 26 26 27 27 26 24 26 24 26 26 26 27 27 28 29 30 31
60 58 56 55 54 53 52 53 53 51 47 45 41 37 36 36 37 34 31 33 31 31 31 30 29 29 28 27 27 28 28 29 29 24 23 22 18 19 23 24 25 26 26

GFSMW_sfc_temp_081.txt.gz
Temp
58 59 59 59 59 59 58 58 56 56 56 55 57 60 61 60 61 62 65 65 65 66 62 62 60 61 59 58 58 55 55 54 54 53 52 53 53 54 53 53 54 55 56
56 57 57 59 58 56 57 58 57 56 58 57 60 61 63 62 63 63 63 64 64 63 62 62 61 61 59 57 56 56 54 53 53 51 49 47 50 51 54 52 54 52 54
54 56 58 57 56 56 56 59 59 58 60 61 62 63 61 60 61 61 62 63 63 62 63 63 62 60 57 56 55 55 55 52 52 54 51 46 44 46 49 50 50 51 50
60 60 60 58 57 57 60 62 63 61 61 63 63 63 63 61 61 60 61 61 61 61 62 63 63 61 59 58 56 58 54 53 51 51 55 52 49 44 42 47 48 50 51
61 62 62 62 61 61 61 63 64 64 64 65 63 64 60 63 60 60 60 59 59 60 61 61 60 61 58 57 57 55 54 53 50 49 50 52 48 46 44 41 45 48 49
62 63 65 65 64 64 63 65 66 66 66 66 66 63 64 62 62 60 59 58 57 57 59 60 60 60 59 58 58 54 52 51 51 51 50 51 47 48 43 40 40 42 45
64 63 63 64 65 65 65 66 66 66 67 66 66 65 63 64 62 61 60 57 57 56 58 59 58 60 59 56 56 54 52 51 50 50 51 52 51 48 46 43 43 41 42
67 65 65 66 66 67 66 66 67 67 68 67 66 66 63 65 63 63 61 60 59 58 57 58 57 58 57 56 54 52 51 51 49 51 51 51 51 51 49 46 42 38 40
69 68 68 68 69 68 67 67 68 68 69 66 67 66 65 63 63 62 61 59 59 58 57 59 58 55 54 53 51 49 49 49 49 49 49 49 49 49 49 48 45 41 33
69 70 70 69 69 69 71 69 69 70 70 70 67 67 65 64 61 60 60 59 59 59 57 55 53 51 50 49 48 47 48 49 48 49 48 49 49 49 48 47 46 42 39
69 68 71 72 71 70 69 70 67 69 69 70 67 66 64 62 60 60 59 59 58 56 54 51 49 50 51 49 48 48 48 48 47 49 48 48 49 47 45 44 44 42 40
68 69 70 69 72 69 70 70 68 68 70 70 65 65 63 62 60 61 59 56 53 52 51 51 52 51 49 49 49 48 49 48 48 49 49 48 51 45 44 42 42 41 41
68 68 69 70 70 70 69 70 68 68 69 64 65 62 61 60 58 56 55 54 52 51 52 51 50 50 51 50 49 49 49 49 50 49 47 47 46 43 42 42 40 40 44
70 67 66 68 70 69 69 66 66 67 66 66 60 57 56 56 55 53 52 52 52 50 51 51 51 50 50 50 50 50 49 48 47 47 46 46 45 43 42 42 40 41 37
69 68 67 66 67 66 64 66 61 59 58 57 56 54 53 53 52 51 51 51 51 50 50 49 49 49 49 50 49 51 47 44 44 44 46 45 45 44 42 42 38 36 34
68 69 69 68 66 63 59 58 56 54 54 52 51 51 51 51 50 50 49 49 48 48 49 49 49 47 52 46 44 44 42 44 43 41 41 42 43 43 41 40 38 36 32
66 67 65 63 60 57 55 52 51 53 51 50 50 50 49 48 47 47 47 47 47 47 47 48 48 47 47 41 42 41 42 41 40 38 38 40 45 39 38 37 36 35 37
64 63 58 56 54 53 52 51 50 50 50 49 49 48 47 46 47 47 47 46 47 47 47 47 47 46 45 40 39 40 39 38 38 38 37 36 35 36 36 34 31 31 32
61 58 56 54 52 51 51 50 49 49 49 48 48 48 47 46 47 46 46 47 47 47 47 48 46 41 39 38 38 38 36 36 34 37 36 36 33 36 38 33 30 31 31
59 55 55 54 51 50 51 49 48 48 48 49 48 49 48 48 47 48 48 49 49 49 46 44 40 38 35 37 38 36 31 31 30 32 33 34 34 34 34 31 29 28 30
58 55 54 52 51 51 51 48 48 47 51 51 50 50 51 51 50 50 50 48 44 40 34 35 36 35 34 34 36 35 30 29 29 29 29 29 33 34 34 34 30 29 32
56 56 54 51 51 51 50 48 49 52 53 52 51 51 50 52 51 48 47 45 40 35 34 34 32 32 31 34 34 34 33 32 29 28 29 29 32 33 33 32 33 33 31
55 56 53 52 52 52 52 49 48 51 50 51 50 50 50 49 49 45 42 39 38 35 33 33 32 31 31 30 32 31 31 31 28 28 29 29 30 30 29 32 32 29 27
54 53 52 50 49 51 51 50 50 50 49 48 47 46 44 42 42 42 39 35 34 33 32 31 31 30 28 27 27 27 26 28 27 26 26 26 27 27 26 26 28 27 26
52 52 49 48 47 49 48 49 50 49 46 43 42 40 38 36 33 33 33 31 30 31 29 28 29 27 25 26 27 27 26 24 27 23 23 24 25 24 24 24 25 25 24
51 49 48 44 38 38 38 42 46 44 40 38 37 34 34 33 31 29 29 31 30 31 31 30 29 28 28 28 28 28 29 29 29 23 20 16 14 16 20 19 20 21 20

GFSMW_sfc_temp_084.txt.gz
Temp
58 58 58 58 58 58 58 58 58 57 57 58 58 58 59 60 59 60 62 61 61 62 61 60 58 59 59 57 57 54 54 51 52 52 50 50 50 51 50 51 51 52 53
56 56 54 57 58 58 58 59 58 56 57 59 62 62 63 57 58 60 60 62 63 63 62 61 60 61 59 56 55 54 52 52 51 50 47 47 50 50 52 50 51 50 52
54 54 55 54 54 56 55 56 57 56 57 58 57 57 57 57 57 58 58 60 63 62 63 61 60 60 60 57 55 54 54 51 50 51 50 43 43 43 47 49 48 49 49
56 55 55 56 53 54 55 57 57 57 58 58 58 57 59 58 58 58 60 59 61 61 62 62 61 60 57 55 56 57 53 52 50 49 52 49 47 43 43 47 47 48 49
54 54 56 58 56 56 55 56 58 58 59 58 58 58 57 58 58 58 58 59 59 60 61 60 59 57 57 56 56 54 53 52 50 49 49 48 46 45 43 41 44 46 46
56 57 59 59 57 58 57 57 58 59 59 59 60 59 59 59 59 60 59 59 59 59 59 61 59 59 57 56 59 57 52 51 50 50 50 48 46 45 43 42 41 43 45
58 58 58 58 58 57 57 58 59 59 61 61 61 61 61 60 60 60 60 59 58 57 58 59 57 57 57 56 58 56 53 52 51 50 49 49 49 49 47 45 41 40 41
60 59 60 60 60 60 59 60 60 61 62 62 62 63 63 62 63 62 61 60 60 60 61 59 57 56 56 56 54 51 50 49 48 47 47 47 49 50 50 47 41 36 36
61 61 62 62 62 61 61 60 62 63 64 63 63 63 63 62 63 61 61 61 61 61 57 58 56 54 54 52 51 49 48 48 47 47 47 48 49 48 49 48 44 39 34
63 63 63 63 64 64 63 62 63 64 65 65 65 65 64 63 63 61 60 60 59 58 56 56 54 51 50 50 50 49 48 49 47 48 47 48 47 48 48 46 43 41 38
65 65 65 65 66 65 64 63 63 64 65 67 66 65 65 63 62 61 60 60 58 57 56 54 52 51 51 51 51 50 48 48 48 49 48 48 48 48 45 43 42 41 39
67 68 67 67 67 66 65 65 63 64 65 66 67 64 63 62 61 60 59 57 56 56 54 53 52 52 52 51 50 48 49 48 48 48 47 48 50 46 44 41 40 39 38
63 65 67 67 67 67 66 66 66 65 66 66 64 62 61 60 59 59 58 57 55 53 53 52 52 51 50 50 50 50 49 48 48 48 48 48 47 42 40 40 39 38 42
65 63 62 65 68 68 67 66 66 66 65 65 63 62 60 60 59 57 58 56 54 52 52 53 52 51 51 51 50 49 48 48 48 48 47 45 43 41 40 39 37 38 34
65 64 63 62 63 63 65 66 65 64 64 63 58 58 56 57 56 55 54 53 52 52 52 51 51 51 51 51 49 49 47 46 44 44 43 42 43 43 40 39 34 32 30
63 65 65 63 62 61 60 57 55 55 58 57 54 52 51 52 52 51 50 50 50 50 50 49 49 48 50 42 43 45 44 44 43 40 40 42 41 39 38 38 38 35 31
64 63 63 61 59 56 56 54 53 53 53 51 51 50 50 49 48 49 48 48 48 48 48 48 48 47 47 41 41 40 42 41 39 37 38 40 41 37 35 35 35 34 36
60 58 54 51 50 51 52 52 52 51 51 50 49 49 48 47 47 47 47 47 47 47 47 46 46 46 44 39 39 38 37 36 38 37 35 34 32 33 34 32 31 32 32
58 54 52 50 50 50 51 51 50 50 50 49 49 49 48 47 47 46 46 46 47 46 45 46 44 41 39 38 38 38 37 35 33 35 34 33 31 34 36 31 29 29 31
54 51 50 49 49 48 49 49 48 49 48 49 48 48 48 47 46 46 46 47 47 46 44 42 40 38 37 37 37 36 32 30 30 32 33 33 32 33 33 29 28 27 29
52 51 50 48 47 48 48 46 46 46 49 49 49 49 49 48 48 47 47 46 43 40 37 35 36 36 36 36 36 35 30 30 29 30 30 30 31 32 33 33 29 29 32
50 50 49 47 47 48 47 45 44 47 49 49 47 49 49 50 49 46 44 42 39 35 34 32 31 31 32 34 34 34 32 31 29 28 29 29 31 31 31 31 32 32 29
50 51 49 48 48 48 47 45 48 50 49 48 48 48 47 47 46 43 40 38 37 35 33 32 30 28 29 29 31 31 31 29 28 28 28 29 30 30 29 30 30 27 24
49 50 49 47 45 46 47 46 47 47 47 44 41 40 38 38 38 38 37 34 33 33 32 31 29 28 27 26 27 27 27 28 28 27 27 26 27 26 27 27 27 25 23
48 47 42 38 38 41 44 46 45 43 40 39 38 36 35 34 31 30 31 31 30 31 30 29 30 25 24 26 27 28 27 26 27 24 24 24 24 24 24 23 24 23 23
41 38 37 36 35 36 37 40 42 42 38 35 34 32 32 31 31 30 28 31 31 31 31 30 28 28 29 29 29 29 29 29 29 24 21 18 16 18 20 19 19 20 19

GFSMW_sfc_temp_087.txt.gz
Temp
55 58 58 57 57 57 57 57 56 57 58 57 58 58 56 57 58 60 62 62 62 61 59 58 57 56 57 56 55 53 52 50 50 49 48 48 49 49 48 49 50 51 52
54 57 57 56 57 56 57 57 57 57 58 59 62 61 60 59 59 60 61 62 61 60 60 59 57 57 56 55 54 54 51 51 50 48 46 45 48 47 49 48 49 48 50
51 56 56 56 57 56 57 58 57 57 59 61 62 60 59 57 57 59 59 60 61 61 61 60 59 58 58 56 54 53 54 50 48 49 49 43 43 43 46 47 46 47 46
54 56 55 55 55 57 56 56 56 56 55 56 57 57 58 58 61 56 59 57 59 60 61 61 59 58 56 54 55 55 52 52 50 48 50 47 46 43 43 45 45 45 47
53 53 53 54 54 56 54 54 55 56 57 55 55 55 55 55 55 56 57 57 58 61 62 61 59 58 57 57 55 53 54 55 53 51 49 47 45 43 42 41 44 44 45
53 54 54 55 53 53 53 53 54 55 56 56 55 54 55 55 55 56 55 56 57 58 59 59 58 59 57 55 54 54 55 55 53 52 51 50 48 46 43 42 43 42 45
54 53 53 53 54 52 53 54 55 55 57 56 57 57 56 56 57 58 58 57 57 56 57 57 56 57 57 55 55 55 55 53 51 51 47 48 47 48 46 44 43 41 44
56 55 55 55 55 55 54 55 55 56 57 57 57 58 58 59 59 59 59 59 59 60 59 58 59 57 55 54 53 52 51 51 49 48 48 47 47 47 46 46 43 40 41
56 57 58 57 56 57 56 55 57 57 58 58 58 58 58 59 60 59 60 60 61 61 60 58 58 56 55 54 52 50 50 50 49 48 47 48 47 47 48 47 45 43 38
58 59 59 59 59 59 58 57 58 59 60 60 60 60 60 60 61 61 60 60 61 60 58 56 56 54 53 52 51 50 50 50 49 48 47 48 48 48 47 47 46 44 42
59 60 61 62 62 60 60 58 58 59 60 62 62 61 61 61 61 61 61 60 60 57 56 56 55 53 52 51 52 51 50 50 48 48 48 48 49 48 47 46 45 43 39
62 62 62 62 62 61 61 60 59 59 61 63 63 62 62 62 61 60 61 59 57 57 56 55 54 52 52 52 51 50 50 50 48 48 48 48 49 47 46 44 43 42 37
59 62 62 62 62 62 61 62 61 61 61 62 62 62 61 61 60 60 58 57 57 56 55 54 54 52 52 51 52 51 50 49 49 48 48 47 47 45 43 43 41 37 40
61 61 60 63 63 64 63 62 62 62 62 62 61 61 61 60 61 60 57 57 56 57 55 54 54 53 52 52 51 51 49 49 49 48 47 47 45 44 42 41 37 37 34
60 60 61 62 63 62 63 64 63 63 62 61 61 61 61 59 57 57 57 58 58 57 55 54 53 53 52 51 50 50 49 48 45 45 45 44 43 42 41 38 35 33 30
62 61 61 61 60 60 61 61 61 61 60 60 59 54 54 55 55 55 55 52 52 52 53 52 51 50 51 43 43 46 46 45 42 40 40 41 41 39 38 38 36 34 31
62 62 60 62 62 57 55 54 52 53 54 53 52 51 52 50 50 51 51 50 50 50 50 50 49 49 48 44 42 40 43 41 39 38 38 40 40 37 37 36 36 34 36
60 58 55 52 51 53 52 52 52 52 51 51 50 50 50 49 49 49 49 48 48 48 48 47 48 46 45 40 39 37 38 37 38 37 37 35 34 35 34 32 31 32 32
56 54 51 49 51 51 52 51 50 51 51 50 50 49 48 48 47 46 46 46 46 46 46 46 44 42 39 37 37 38 37 36 35 35 35 34 32 34 35 31 29 29 31
52 49 48 50 50 50 52 51 49 50 48 48 48 48 48 47 46 46 46 46 46 44 42 39 39 37 36 36 37 36 34 32 31 32 32 33 31 32 33 30 28 27 30
49 49 48 48 48 49 50 48 49 47 48 49 49 48 48 47 47 46 46 43 41 38 35 33 34 34 34 34 35 35 32 31 30 30 29 30 31 32 32 32 29 29 29
49 48 47 46 46 46 46 46 46 48 49 48 48 48 48 48 46 43 41 40 37 34 32 31 30 30 31 32 32 32 32 32 30 29 28 28 30 31 31 30 31 30 27
48 49 47 46 45 46 46 44 47 49 48 45 42 42 42 41 42 40 38 36 36 33 32 30 28 27 28 28 29 30 30 29 28 28 28 29 29 29 28 30 29 27 24
47 47 45 42 41 43 44 47 46 44 42 39 38 38 36 35 36 35 35 33 33 32 32 30 28 27 27 26 27 28 27 28 27 27 27 27 27 27 27 27 26 25 24
42 42 39 38 39 41 41 42 42 41 38 37 36 34 33 31 30 30 30 30 30 31 31 30 29 26 25 26 26 27 27 27 27 25 25 25 24 23 23 23 23 23 22
38 36 35 35 35 36 36 37 39 38 35 32 32 31 31 31 30 29 28 31 30 30 30 30 29 28 28 28 27 27 27 28 28 24 21 18 17 18 20 19 19 20 19

GFSMW_sfc_temp_090.txt.gz
Temp
57 58 57 57 57 56 56 56 57 57 59 58 58 57 58 57 57 62 62 62 62 62 60 58 57 56 57 56 54 52 53 51 51 50 49 49 49 49 49 50 51 52 52
54 56 56 56 56 56 57 57 57 57 60 59 59 57 58 58 58 59 61 61 61 62 61 60 57 57 55 54 53 53 51 51 50 49 47 47 49 48 49 48 49 49 50
51 56 55 55 56 55 56 57 57 57 58 59 58 58 58 57 58 58 58 60 61 60 61 59 58 56 56 55 53 52 53 50 48 49 50 43 44 45 47 47 47 48 47
52 54 57 55 55 56 58 58 58 57 59 59 58 58 59 58 62 58 59 59 60 59 59 59 58 57 56 54 54 53 53 52 50 48 50 48 48 46 45 46 47 47 48
52 52 57 57 57 57 57 58 57 58 59 58 58 57 57 59 56 57 58 57 58 59 59 59 58 56 58 57 55 54 52 52 52 51 49 49 47 45 45 43 45 46 46
51 52 55 57 57 58 56 54 56 55 55 55 54 55 55 53 54 54 54 54 55 56 57 59 59 59 57 56 55 54 53 53 52 55 52 50 49 46 47 45 44 45 48
51 51 51 52 54 55 56 55 55 54 55 54 54 54 54 54 56 56 57 54 55 55 56 56 56 56 56 56 55 54 54 53 52 53 52 50 50 48 46 46 43 43 44
53 52 52 52 53 54 54 54 54 53 54 54 54 55 55 55 56 56 57 57 58 58 57 56 57 57 57 56 55 55 54 53 52 51 49 49 48 48 48 46 43 39 41
53 54 54 54 54 53 53 53 53 54 55 55 55 54 54 55 56 55 55 57 56 58 56 56 57 57 57 56 54 54 52 51 51 50 50 50 48 48 49 48 46 45 39
54 55 55 55 56 56 55 54 55 55 56 56 56 56 55 55 56 55 55 57 57 56 57 56 57 56 54 53 53 52 52 51 51 51 50 50 49 48 48 48 47 46 44
54 56 57 58 58 57 56 55 55 56 56 57 56 56 56 56 56 56 57 57 57 58 57 58 57 55 53 52 52 51 51 51 50 51 50 50 50 48 48 47 46 45 43
55 56 56 57 58 57 56 56 56 56 58 59 60 58 57 57 57 57 58 58 58 58 58 57 56 56 54 52 52 52 52 50 50 50 50 50 49 48 48 46 44 44 43
55 55 56 57 58 58 58 57 57 57 58 59 59 59 58 58 57 58 59 59 59 58 57 57 57 57 55 54 53 54 53 51 52 51 50 49 47 46 44 44 44 42 43
57 55 55 57 59 59 59 59 59 59 58 58 58 57 58 58 59 59 59 59 58 59 57 56 56 56 55 54 53 52 52 51 51 50 49 49 48 47 44 43 42 40 38
59 57 55 57 58 59 59 60 60 59 59 58 57 58 58 58 56 57 57 57 58 58 58 57 56 54 54 53 52 51 51 49 48 47 46 45 44 43 42 41 38 37 35
61 61 59 58 57 59 59 59 59 59 58 58 57 58 57 56 55 56 56 57 57 56 57 54 53 52 52 46 44 48 49 48 45 42 40 40 39 38 37 37 37 37 35
60 59 60 59 57 55 55 53 53 54 55 56 54 52 53 53 54 54 54 54 54 53 52 52 52 52 51 43 43 42 46 45 41 38 37 38 38 37 36 36 36 35 36
59 59 56 51 50 52 52 52 53 52 52 51 51 51 51 51 51 51 51 50 49 49 48 47 47 45 42 39 39 39 39 37 37 37 36 34 34 35 35 34 34 33 33
55 52 50 51 52 52 52 52 51 51 50 50 50 50 50 49 48 48 46 47 46 46 44 44 42 40 37 37 37 37 36 34 33 34 34 34 33 34 34 32 30 30 32
50 49 50 51 52 51 52 51 50 49 48 48 48 49 48 47 46 46 46 46 44 42 40 37 37 36 35 36 36 36 34 31 30 30 30 30 30 32 32 30 30 28 30
48 49 50 49 49 51 51 48 48 46 48 48 48 48 48 46 46 44 43 41 37 35 33 31 32 32 33 34 34 34 32 31 30 28 28 30 30 30 31 31 30 29 29
48 48 48 47 47 50 49 46 45 47 48 46 44 44 44 44 43 40 39 37 35 32 31 30 29 30 30 32 32 31 30 30 28 27 28 28 29 30 30 29 30 29 27
48 48 47 45 46 47 48 44 45 44 43 42 40 40 40 40 40 38 37 35 34 32 31 30 28 27 28 28 30 29 28 28 27 27 27 27 28 28 28 29 28 26 25
45 45 43 42 42 45 45 44 44 43 41 38 36 35 34 34 34 35 34 33 33 32 31 29 27 26 27 27 27 27 26 27 27 26 26 26 27 27 26 26 25 24 23
40 40 38 37 37 39 39 40 39 38 33 32 31 31 32 32 30 30 30 30 30 31 30 29 29 26 25 25 27 27 26 26 26 25 25 25 24 23 23 23 22 22 21
37 35 34 32 32 33 32 34 35 35 33 31 31 31 31 31 30 29 28 31 31 31 30 30 28 28 28 28 28 28 28 27 26 24 22 20 19 19 20 19 19 19 18

GFSMW_sfc_temp_093.txt.gz
Temp
62 62 60 59 58 58 58 58 57 58 58 58 58 59 59 59 60 61 62 64 65 65 64 66 65 66 66 66 64 64 62 62 63 61 60 60 60 60 62 64 65 64 65
59 60 59 58 57 57 59 58 58 57 59 61 59 59 60 60 60 62 63 63 64 64 63 65 64 66 65 64 63 63 59 61 61 62 62 58 60 61 62 62 63 63 65
58 60 58 57 57 57 58 58 58 58 59 60 59 57 57 57 61 62 62 66 66 62 63 65 64 63 65 64 62 61 62 60 60 62 63 56 57 60 60 59 61 62 62
60 61 61 58 57 58 59 59 59 58 58 60 61 59 58 58 61 63 63 62 64 62 62 63 64 64 64 63 63 62 61 63 61 60 60 59 61 59 58 59 60 60 61
60 60 62 62 60 60 59 59 59 59 60 61 60 61 59 61 58 60 63 60 60 60 60 62 62 64 65 64 62 61 61 61 62 60 59 57 59 58 60 61 59 58 52
60 61 63 63 61 60 60 59 58 58 58 58 61 62 60 60 61 60 59 60 61 61 62 62 62 65 66 64 62 61 60 60 59 61 57 55 57 54 50 54 47 50 58
60 60 60 60 59 58 59 59 59 58 58 58 59 60 61 62 63 64 64 61 62 64 64 65 65 66 65 65 65 63 61 60 60 61 57 55 58 57 52 59 49 49 55
60 61 61 60 59 58 59 59 59 60 60 59 60 61 62 63 64 65 66 65 66 66 66 65 66 66 66 65 64 63 62 61 57 55 54 56 57 58 59 53 48 43 47
60 62 61 60 60 57 57 57 58 59 60 60 60 60 61 62 63 64 64 64 65 66 65 66 65 66 65 65 64 63 63 62 60 58 56 57 60 60 60 58 52 52 46
60 62 62 61 61 60 58 57 58 57 59 61 61 61 61 62 63 62 62 63 64 65 65 65 65 65 65 64 63 62 63 59 59 57 54 55 58 57 57 55 50 54 53
62 62 63 63 63 62 60 58 57 59 60 61 61 61 61 61 62 62 62 63 64 65 64 65 65 64 64 62 60 59 59 54 54 53 53 52 54 51 50 49 48 50 52
64 63 64 63 62 62 61 61 60 60 61 62 62 61 61 60 61 61 62 63 63 64 64 64 65 64 62 58 55 54 55 53 53 52 51 51 52 50 50 51 49 53 51
64 63 63 63 63 63 62 62 61 62 62 62 61 62 60 60 59 61 62 63 63 64 64 64 63 62 59 56 58 57 56 54 54 54 52 52 52 50 50 51 52 51 45
65 65 64 64 64 64 64 63 62 63 63 63 62 62 62 62 62 62 62 62 63 64 64 64 63 62 61 59 58 57 55 54 55 56 54 53 52 50 50 49 47 45 41
66 65 66 65 64 64 64 64 64 63 63 62 62 62 63 63 63 63 63 63 64 64 64 63 61 60 59 57 56 55 55 55 53 52 52 51 50 47 48 46 42 40 37
67 69 67 65 64 64 64 64 64 63 63 62 61 63 62 62 62 62 62 63 63 63 62 60 58 58 56 48 45 49 52 53 51 48 42 42 41 40 38 38 37 39 36
66 66 66 65 66 64 64 64 63 63 62 62 62 62 62 62 62 62 62 62 62 61 58 57 56 54 52 44 43 41 47 45 41 39 39 38 37 36 35 35 35 34 34
66 66 63 59 58 58 59 58 61 62 61 61 58 58 58 56 56 57 57 54 51 50 48 47 46 42 39 38 39 38 40 38 37 37 36 35 34 34 33 33 32 32 32
62 59 58 57 56 54 55 55 54 54 53 53 53 53 53 51 50 49 48 48 46 43 42 41 39 37 36 36 37 37 35 33 32 33 33 33 32 32 33 31 30 30 31
53 53 54 53 53 54 55 53 51 50 48 48 48 49 49 48 47 46 44 42 40 38 37 35 35 35 35 35 35 35 33 31 30 30 30 30 30 30 31 31 31 30 31
50 52 53 51 52 53 52 49 48 46 48 48 48 47 46 44 44 42 41 39 36 34 33 31 32 33 33 34 34 34 32 31 30 29 28 28 29 29 30 31 31 31 31
48 49 49 48 50 50 49 46 44 45 46 45 43 43 43 43 42 39 38 37 35 32 31 30 29 30 31 32 32 32 31 31 29 28 28 29 29 29 30 31 29 28 27
47 47 46 45 46 49 48 43 43 44 42 41 39 38 39 39 39 37 36 34 34 31 30 29 28 27 28 28 30 30 29 28 29 29 28 27 27 28 29 28 27 26 28
44 44 42 40 39 42 43 43 42 41 40 38 37 36 36 35 36 35 35 33 33 31 31 29 27 27 27 28 29 29 30 29 29 28 29 27 27 28 28 28 27 27 26
40 40 38 37 36 37 38 40 40 40 38 37 36 35 33 32 31 31 31 31 30 31 31 31 32 30 29 29 30 30 30 30 28 29 29 28 28 27 27 27 26 26 25
37 36 36 35 34 35 36 38 39 39 37 35 34 33 33 33 32 31 30 31 31 31 31 31 31 30 29 29 29 28 28 28 27 28 26 25 25 24 25 24 24 23 22

GFSMW_sfc_temp_096.txt.gz
Temp
76 73 70 68 62 63 62 59 60 61 61 60 59 59 59 61 61 62 62 63 66 69 71 73 72 74 73 73 72 72 70 71 71 70 70 68 68 67 70 70 70 70 71
73 70 68 67 63 63 63 60 59 61 61 61 59 60 61 60 61 61 62 63 65 70 70 72 71 73 73 71 70 70 69 68 67 64 67 62 65 68 68 71 70 70 72
73 70 66 62 62 61 64 63 63 59 61 61 59 58 59 60 60 60 61 62 64 69 70 73 72 73 73 70 69 68 68 66 64 67 67 63 62 68 70 67 69 69 69
75 73 70 65 60 62 67 66 65 61 62 62 62 59 59 58 62 62 64 63 63 64 68 72 72 71 72 70 69 69 69 69 65 65 67 68 68 64 61 67 68 69 66
75 73 72 69 63 63 63 64 66 60 61 63 62 60 60 61 60 62 68 65 64 65 64 65 65 68 70 69 69 68 68 70 69 67 66 65 66 67 61 61 64 67 69
75 75 75 73 70 65 65 63 64 62 61 65 66 63 64 60 59 60 62 67 65 69 67 66 65 67 70 70 70 70 68 67 67 70 66 66 64 65 63 52 51 55 63
74 73 73 72 71 66 65 64 64 61 64 66 65 63 65 65 62 63 63 69 67 64 64 66 64 67 70 72 71 70 69 69 66 65 66 61 63 63 63 57 52 49 56
74 74 74 73 71 68 65 64 64 63 62 61 62 66 69 65 67 69 70 68 69 70 71 70 70 67 67 70 70 70 70 70 68 67 67 65 66 60 56 55 50 49 52
75 75 75 74 73 69 67 65 66 64 64 64 64 64 68 67 68 70 70 71 71 72 71 71 71 72 72 71 71 70 70 70 68 68 66 63 61 59 63 56 54 52 49
76 76 76 74 74 72 70 67 69 68 68 67 67 67 68 69 70 70 70 70 72 72 72 71 71 71 71 71 70 70 71 69 69 69 67 66 64 64 63 58 56 56 52
76 76 77 76 74 72 71 65 65 68 69 70 69 68 68 69 69 69 70 70 70 71 70 70 70 70 71 71 70 70 70 68 68 68 65 63 62 59 56 55 54 51 50
77 77 76 76 74 72 71 66 61 64 67 69 70 69 69 69 68 68 69 70 70 70 70 70 70 71 72 72 71 68 68 65 65 60 58 56 56 55 54 52 51 51 51
77 77 76 75 74 73 72 71 68 66 69 70 69 69 68 68 68 67 67 69 69 69 70 70 69 70 70 70 70 67 62 60 61 61 58 56 55 53 53 52 51 52 52
76 76 75 76 76 75 74 73 72 71 71 71 70 68 68 68 68 68 68 68 68 68 69 69 70 69 70 71 70 66 63 65 65 62 56 56 55 53 53 52 51 50 49
77 77 76 77 77 76 75 74 74 72 72 71 70 69 69 69 69 68 67 68 68 68 69 70 70 70 70 69 68 64 61 58 57 56 54 55 53 47 48 51 50 48 43
80 82 79 78 77 76 75 74 74 72 72 71 70 71 70 70 69 68 68 68 69 70 70 70 69 67 62 49 46 50 56 53 51 51 43 42 41 38 37 37 35 38 38
78 79 80 78 77 76 74 74 74 73 70 70 71 70 70 69 69 69 68 67 65 65 63 61 58 48 43 39 43 41 46 43 40 39 39 37 37 37 36 34 34 34 34
77 79 79 75 74 77 76 75 74 72 69 70 70 70 69 68 69 68 66 60 53 50 47 44 42 39 38 37 38 38 38 36 35 35 35 34 33 34 34 34 32 32 32
72 75 76 72 69 68 70 71 71 70 67 61 62 63 63 58 53 49 49 47 43 40 38 38 38 36 35 36 36 37 34 32 31 33 33 32 31 32 34 32 31 31 32
65 66 67 65 63 62 63 58 55 52 50 50 49 50 49 47 45 43 40 40 38 36 36 34 35 35 35 35 36 36 34 31 31 31 31 31 31 31 31 31 31 30 32
56 57 56 54 56 56 54 50 48 46 47 47 46 45 44 42 41 39 38 37 34 33 32 31 32 33 34 34 34 35 33 32 31 30 29 30 29 30 30 30 32 31 32
50 52 50 50 53 54 50 46 43 45 45 44 42 41 41 41 40 38 37 36 34 32 31 31 30 31 32 32 32 32 32 32 31 30 31 31 29 30 31 32 29 28 29
46 45 44 45 46 47 46 42 42 43 43 42 41 40 40 39 40 38 36 35 35 32 31 30 29 28 30 30 31 31 30 30 32 33 30 29 29 30 30 29 27 27 32
43 43 42 40 40 43 43 43 44 44 44 41 41 41 39 38 38 37 35 34 34 32 32 30 29 30 32 33 34 34 34 33 34 32 33 31 30 29 30 30 31 31 30
42 42 41 40 40 42 44 47 48 47 43 41 40 39 37 35 32 32 33 32 31 33 33 32 32 31 28 28 29 30 30 31 31 32 33 32 31 30 31 31 30 30 29
39 38 39 39 40 41 42 45 47 45 42 39 39 38 38 37 35 32 29 30 30 30 30 30 31 29 28 29 29 28 27 28 29 30 27 26 26 26 26 25 24 26 24

GFSMW_sfc_temp_099.txt.gz
Temp
86 83 79 76 72 66 66 62 64 63 63 61 62 61 60 62 63 65 64 64 64 66 67 71 72 74 75 71 69 74 73 74 75 74 72 72 73 72 74 74 74 73 72
83 79 76 74 69 66 66 60 62 63 63 63 61 60 60 62 63 63 63 63 63 64 64 67 70 71 71 69 71 72 71 73 73 69 69 63 66 69 69 71 71 70 72
83 78 75 73 71 66 66 65 63 64 62 61 61 60 60 60 60 60 61 61 62 63 65 67 69 70 71 70 70 71 71 68 69 68 69 63 62 67 69 66 69 69 69
85 82 77 73 71 68 69 70 66 65 62 62 61 60 58 57 59 59 60 61 62 64 66 68 69 69 73 69 69 71 70 71 66 67 70 70 68 64 61 66 66 67 69
84 81 79 76 74 71 67 66 66 65 64 62 64 60 59 59 59 60 59 60 61 64 67 70 71 71 71 72 71 69 68 69 69 67 67 65 66 65 62 60 61 68 70
83 83 81 79 74 69 67 66 64 64 63 62 63 62 60 60 59 59 59 59 60 61 63 67 69 70 71 69 68 68 68 69 70 70 69 67 64 63 60 59 58 55 58
82 81 79 77 74 69 66 67 65 62 63 63 62 62 61 61 60 62 62 62 62 61 61 62 63 66 69 70 69 66 67 68 67 67 67 68 68 68 62 56 54 55 57
82 81 80 78 77 72 70 67 66 64 64 64 65 66 66 66 62 65 65 63 65 68 64 64 65 66 67 66 68 69 68 68 66 67 68 69 69 67 65 62 55 52 57
82 81 81 79 78 74 72 70 70 69 67 66 68 68 68 68 67 64 65 67 69 70 68 68 68 69 67 68 66 69 69 68 68 67 67 67 68 68 68 67 61 56 51
82 82 82 79 79 76 74 71 73 72 71 68 67 68 70 70 70 70 69 69 70 71 71 69 69 70 70 70 70 70 70 68 67 67 67 68 69 69 68 65 62 58 54
83 82 83 82 80 78 76 72 73 73 72 71 69 68 70 71 71 71 71 71 72 72 72 71 71 71 71 71 71 70 70 69 69 70 69 69 70 67 65 60 58 57 55
84 84 83 82 80 78 76 73 73 74 74 73 71 70 70 70 70 70 71 72 72 72 72 72 72 72 72 72 71 70 71 70 69 69 69 68 65 59 59 61 57 55 55
82 82 83 81 80 78 76 76 73 74 75 75 73 72 70 70 70 70 71 71 71 71 72 72 71 71 71 72 72 72 71 71 70 70 68 65 59 58 59 58 54 54 53
82 82 82 82 81 79 77 76 73 73 73 73 73 72 71 71 72 72 72 71 72 71 71 72 72 72 72 73 73 73 72 70 70 66 63 62 60 57 55 55 53 52 51
82 82 82 81 82 80 79 78 76 73 73 73 72 72 72 72 72 71 71 71 70 71 72 71 71 71 72 72 71 70 66 64 62 61 53 42 41 39 39 45 48 48 48
82 84 84 83 82 81 80 79 78 75 74 73 72 73 72 72 71 71 70 70 70 71 70 70 70 68 55 39 41 48 53 47 45 43 39 39 38 36 36 35 35 34 37
80 83 84 84 83 82 81 80 79 78 75 75 75 74 73 72 71 71 70 69 67 66 53 48 45 41 41 39 39 39 40 38 37 36 36 35 36 36 37 34 34 33 34
81 82 83 83 84 85 82 80 80 77 75 74 75 75 73 73 72 69 57 49 46 43 41 39 38 37 37 36 36 36 35 34 33 33 34 34 33 34 35 35 33 32 32
78 79 80 83 81 81 82 80 78 76 74 73 73 73 73 61 53 47 43 41 39 37 36 37 36 35 35 35 35 35 33 32 31 33 33 33 32 32 34 34 33 33 32
73 75 74 74 73 76 77 77 73 63 52 52 50 50 49 46 42 40 37 37 36 35 35 34 35 35 34 35 36 36 34 32 31 32 32 31 31 31 32 32 32 32 32
66 66 67 67 62 61 57 50 48 45 46 45 44 43 42 40 39 37 36 35 33 33 31 31 32 33 33 33 34 35 34 34 33 33 32 31 31 31 32 32 32 30 33
55 58 56 53 53 52 49 45 42 44 43 42 41 40 40 40 38 36 36 35 33 31 30 30 30 31 32 33 33 33 33 34 33 32 33 33 31 32 31 32 30 30 31
48 48 47 45 46 46 45 41 41 42 41 40 39 39 40 39 39 37 36 35 35 33 31 31 31 31 33 33 33 33 33 32 34 34 31 33 34 34 31 29 29 31 31
44 44 43 41 40 42 43 43 43 43 42 39 39 39 38 37 37 36 37 37 36 34 33 32 30 30 31 31 33 33 34 34 34 33 35 33 32 31 31 33 32 31 30
42 42 40 40 41 43 43 45 44 44 40 39 39 37 36 33 32 33 33 30 30 34 31 30 30 28 26 27 29 28 29 30 30 33 33 31 30 30 30 30 29 29 28
39 39 39 41 43 44 44 45 47 45 44 41 39 36 35 33 31 29 28 30 29 29 29 29 28 27 27 27 28 28 27 27 30 30 28 26 25 24 25 25 25 26 24

GFSMW_sfc_temp_102.txt.gz
Temp
85 80 78 75 71 67 65 64 64 64 63 61 61 61 61 62 64 65 65 64 64 64 63 66 65 66 67 64 67 65 64 63 65 61 60 60 62 62 62 63 63 64 65
82 77 75 73 67 65 65 64 64 63 64 63 62 61 61 62 63 64 64 65 63 64 63 65 64 66 65 65 65 64 62 63 64 60 57 53 57 59 61 60 62 62 63
79 75 73 71 66 64 64 64 65 63 63 64 62 60 61 61 61 62 62 64 64 64 63 64 64 64 65 63 63 63 63 61 61 62 59 54 52 54 57 58 58 60 60
84 77 74 71 66 64 65 67 64 62 63 64 63 60 58 58 59 62 62 61 63 62 62 62 63 63 64 63 63 65 63 62 58 59 62 60 58 53 50 56 57 58 60
82 77 75 73 71 66 64 66 65 62 63 62 63 60 58 58 59 59 59 60 60 61 61 61 63 64 64 63 62 62 62 62 61 60 58 58 57 57 53 51 53 58 62
82 80 77 75 72 67 65 64 64 63 63 62 63 61 59 58 58 58 58 58 58 59 60 62 61 62 62 62 62 63 62 61 61 61 60 57 55 54 53 51 52 52 55
79 78 76 73 71 65 64 63 63 61 62 61 62 61 60 60 59 59 58 58 58 58 59 61 60 60 62 63 62 62 61 61 60 61 60 59 59 59 57 54 52 51 52
78 78 76 73 70 66 64 63 62 61 61 61 61 61 61 61 60 60 60 60 60 60 62 61 62 63 64 63 63 63 62 61 60 60 60 60 59 59 58 56 52 51 52
78 78 78 74 71 67 64 65 63 64 62 62 62 62 62 63 62 62 62 61 61 62 61 62 62 61 62 62 61 62 61 61 60 59 60 61 61 59 59 59 58 55 51
79 79 78 75 73 70 68 66 67 66 64 64 63 63 64 64 63 63 62 63 63 64 62 62 62 62 63 63 62 62 62 61 60 60 60 60 61 61 60 61 60 58 55
79 79 79 77 76 72 70 67 67 68 65 66 65 64 64 65 64 63 63 64 65 65 64 63 63 64 64 64 62 62 62 62 62 62 61 61 62 60 61 60 60 58 56
80 80 80 77 76 72 71 69 68 69 67 67 66 66 65 65 65 64 64 65 65 65 65 65 65 65 65 64 63 62 64 62 61 61 61 61 62 60 60 60 58 57 57
80 81 80 77 76 73 72 70 69 70 70 69 66 65 65 66 64 64 65 66 65 65 66 66 65 65 65 65 64 64 63 63 63 62 61 61 59 58 56 56 56 57 56
79 79 79 78 77 75 73 72 70 71 71 69 67 65 65 65 66 65 65 65 66 65 65 65 65 65 65 66 66 66 64 64 63 60 48 43 41 41 42 48 47 49 50
77 78 78 78 78 76 74 74 71 71 71 70 68 67 66 67 67 66 66 66 66 66 66 66 66 66 66 59 52 59 60 52 46 42 41 39 38 37 37 38 36 39 41
76 78 81 80 79 77 75 74 72 69 70 69 68 69 68 68 66 66 66 65 65 66 65 63 54 48 45 39 41 47 44 43 41 38 37 37 38 36 36 35 35 34 35
74 76 79 80 79 78 77 74 74 71 69 69 70 69 69 68 66 67 66 64 59 50 45 42 41 38 38 37 38 39 38 36 36 35 35 35 36 36 36 35 35 34 34
75 76 77 77 79 80 78 76 76 72 70 69 71 71 69 68 68 61 47 44 42 39 38 37 37 36 35 36 36 35 35 33 33 33 33 32 32 33 35 35 33 31 32
75 72 73 74 76 77 78 77 75 74 71 70 70 70 69 52 47 42 40 39 37 36 35 35 35 34 34 35 35 35 33 31 30 31 32 32 31 33 35 33 31 31 32
67 71 72 72 70 64 72 73 70 63 52 51 50 48 46 43 39 38 37 36 35 34 34 33 33 34 33 35 35 35 33 31 31 31 31 32 31 33 33 31 29 27 27
59 63 58 57 56 55 52 49 46 44 44 44 43 41 40 38 38 37 35 34 33 32 31 31 31 31 32 33 35 35 34 33 32 31 30 31 32 32 33 32 28 28 29
51 53 51 50 52 52 47 42 40 42 42 41 39 39 38 38 37 34 33 33 32 31 30 29 30 31 32 33 34 34 34 34 30 29 30 30 34 32 31 30 31 32 30
47 47 44 43 44 45 44 39 40 41 40 39 39 37 37 37 36 34 33 32 32 31 31 30 29 29 31 32 33 34 33 33 30 30 32 33 33 33 30 31 31 28 25
43 43 42 40 39 41 41 40 40 40 38 36 35 35 33 33 33 35 35 34 33 31 30 28 26 26 26 26 28 28 29 31 31 31 30 29 29 28 28 28 27 26 24
40 41 40 39 39 40 40 40 40 38 35 33 32 31 30 29 28 28 28 28 29 29 27 26 26 24 22 25 27 27 26 26 28 27 26 24 23 22 23 22 23 22 21
38 39 40 39 39 40 39 39 40 39 36 33 32 30 29 28 27 26 24 28 28 28 28 27 25 25 27 28 29 29 29 30 30 24 19 17 16 17 18 17 17 18 17

GFSMW_sfc_temp_105.txt.gz
Temp
74 71 69 65 61 60 60 60 62 62 59 58 57 57 60 63 64 64 63 64 64 65 64 66 65 65 66 64 64 65 63 59 59 57 56 56 58 59 59 59 62 61 61
70 69 64 63 60 59 59 62 62 61 59 58 59 59 58 59 64 64 64 64 64 64 63 66 65 66 64 62 63 64 60 59 58 58 55 51 55 56 57 57 58 58 61
67 66 64 60 58 57 59 62 62 60 58 61 60 58 58 59 60 62 62 63 64 63 63 64 64 65 63 63 61 63 60 58 57 63 57 51 51 51 54 56 55 56 56
69 67 63 58 58 57 60 64 63 61 61 61 60 59 59 57 60 61 62 62 63 63 62 64 64 64 64 62 61 63 61 60 58 58 61 58 57 50 48 52 53 54 56
68 66 64 60 60 59 60 64 62 61 62 61 60 58 58 58 60 62 61 61 62 63 62 63 63 62 63 63 63 60 60 60 58 57 57 55 53 52 50 47 50 52 55
69 67 66 62 60 59 59 63 61 61 61 60 60 59 58 58 58 60 59 60 61 60 61 61 61 60 61 61 60 60 60 58 58 60 58 55 53 52 50 48 48 49 51
68 66 64 62 59 57 59 62 61 60 60 60 59 58 58 60 58 58 59 58 58 58 59 60 60 59 59 60 60 59 59 59 58 58 57 57 56 55 53 51 49 49 51
68 66 65 63 59 59 58 61 60 60 60 60 59 58 58 58 60 58 59 59 59 59 59 59 60 59 59 59 59 59 59 59 59 58 58 58 59 58 56 54 50 48 48
68 66 66 64 59 59 59 59 59 61 60 61 59 57 58 58 59 60 60 60 60 60 58 58 59 59 59 60 60 60 59 60 59 59 59 59 59 58 58 58 56 55 51
69 68 66 64 61 60 60 59 60 62 61 60 60 59 59 61 61 60 60 60 60 61 59 59 60 60 60 61 61 61 61 60 60 60 60 59 60 58 57 57 57 56 56
70 69 68 66 63 62 60 60 59 60 60 60 59 59 59 60 60 61 60 60 60 61 60 61 61 61 60 61 61 61 61 59 59 58 58 58 59 58 57 57 58 57 56
68 71 69 66 63 62 61 61 60 60 60 63 62 59 60 60 59 59 60 61 61 61 61 62 61 61 62 61 60 58 61 59 58 58 58 58 59 57 58 57 57 57 57
72 72 69 67 64 64 62 62 62 62 62 63 63 62 61 60 59 59 60 60 61 61 62 61 61 61 61 61 60 60 60 59 59 59 57 53 51 53 49 51 52 52 53
68 65 67 69 66 66 64 64 63 64 63 62 61 62 60 60 61 60 60 60 61 61 61 62 61 61 62 62 62 62 61 60 51 47 44 42 41 41 43 43 41 43 44
69 70 64 64 68 67 65 65 65 64 64 62 61 60 60 59 60 59 59 61 61 61 62 60 62 62 60 54 55 58 54 47 42 40 40 39 39 38 37 39 36 38 38
70 72 69 65 67 68 66 66 65 65 65 63 62 62 61 62 60 60 59 58 59 61 57 48 48 44 43 39 42 45 43 41 39 37 37 37 37 36 35 34 34 34 34
61 68 71 73 63 68 70 67 66 67 65 63 64 63 62 62 61 61 61 60 50 45 42 40 39 37 37 38 38 38 38 36 36 35 34 34 34 34 34 33 34 34 33
58 59 63 63 69 72 69 68 67 66 64 63 64 64 63 63 61 54 46 43 41 39 37 36 36 35 35 36 36 36 35 33 33 32 32 31 31 33 32 33 32 32 32
56 57 55 54 54 57 67 64 65 65 63 63 63 64 64 48 45 41 39 38 37 35 35 35 34 34 34 35 35 34 32 31 30 31 31 31 31 32 35 31 29 28 29
53 54 53 52 51 49 60 62 60 54 47 45 45 46 45 42 39 37 36 35 35 33 34 33 34 34 34 35 35 34 33 30 29 30 31 33 32 33 32 28 27 25 26
49 49 47 46 47 47 47 43 43 41 43 43 43 41 40 38 37 36 35 34 32 31 31 30 31 31 33 33 35 35 33 31 30 30 30 31 33 32 32 31 28 27 27
45 46 43 42 45 44 44 41 39 41 42 41 40 39 38 38 36 34 34 33 32 30 29 29 29 30 31 33 34 34 33 33 30 29 28 30 32 32 30 28 29 27 25
44 44 43 41 42 42 42 40 40 41 41 39 38 37 37 36 35 33 33 32 32 31 29 29 27 27 28 28 31 33 32 32 29 29 31 31 31 29 27 27 26 23 20
41 42 40 39 38 39 39 39 39 39 37 35 34 34 34 33 34 34 33 31 30 28 27 26 23 23 24 25 26 27 27 31 28 27 25 25 25 23 23 22 22 20 18
40 40 38 37 37 38 38 38 37 36 33 32 31 30 29 28 27 27 27 26 27 27 25 24 24 22 22 24 27 28 27 26 25 22 22 20 20 18 18 18 18 17 17
33 36 37 37 37 37 36 36 36 34 32 29 28 27 26 26 25 24 24 27 26 26 26 26 25 26 28 29 30 30 29 27 25 20 15 12 12 13 14 12 12 14 13

GFSMW_sfc_temp_108.txt.gz
Temp
65 67 64 63 60 60 60 59 58 59 59 57 59 61 61 62 62 64 65 65 65 65 64 64 64 63 65 61 62 62 61 56 58 56 55 55 57 57 59 59 59 57 58
62 63 61 61 60 59 59 58 59 59 58 58 57 60 60 63 63 63 65 65 64 65 65 65 65 64 63 63 62 62 58 58 58 56 54 51 54 55 55 56 58 56 58
62 61 60 58 58 58 58 59 59 61 60 58 58 57 58 60 61 61 62 63 64 65 65 66 66 66 64 62 63 63 63 61 56 60 55 49 49 51 55 54 54 55 53
65 64 61 57 57 57 58 59 60 61 60 59 58 58 55 58 59 62 63 63 63 64 65 65 66 66 65 64 63 64 61 62 60 55 58 56 56 51 50 53 54 52 54
65 64 61 60 58 57 57 59 59 60 61 60 60 59 58 58 58 60 61 63 62 63 63 63 63 64 63 63 63 60 60 58 58 57 54 55 54 52 51 48 52 51 53
65 66 64 59 57 57 57 58 59 60 60 60 60 59 58 59 58 60 60 60 61 61 61 62 62 63 62 61 59 58 59 57 58 58 58 56 55 53 51 47 49 49 51
65 63 57 57 56 56 56 58 59 58 60 60 59 59 59 59 59 60 60 61 60 60 58 60 59 60 61 60 60 59 58 58 57 57 56 57 56 56 53 52 49 48 49
67 63 60 59 57 57 57 58 58 58 60 59 59 59 57 59 59 60 60 60 60 60 59 60 60 60 60 60 59 58 57 57 57 57 56 57 55 57 56 54 52 48 49
62 62 61 59 58 57 57 57 58 58 60 60 59 59 58 57 59 59 60 59 60 60 59 59 59 59 59 59 58 58 57 57 57 58 58 58 57 57 57 57 56 55 51
62 64 63 59 59 58 58 57 59 58 60 60 59 59 57 57 57 58 58 59 59 59 58 59 59 58 58 58 58 57 58 57 58 59 58 57 58 58 57 58 57 56 56
62 64 64 61 59 59 58 57 57 58 60 61 59 58 57 58 58 59 59 58 59 58 58 58 57 58 58 58 58 58 59 58 59 59 59 59 59 58 58 57 57 56 55
62 62 64 61 58 58 57 57 58 58 59 61 60 59 57 58 59 59 59 58 58 59 59 59 57 58 59 58 59 59 60 58 58 58 57 57 58 57 58 55 54 55 56
61 63 62 62 59 58 58 58 58 58 59 59 59 59 57 56 57 58 58 58 58 58 59 59 59 59 59 59 59 59 59 57 58 58 56 54 51 52 47 48 47 47 49
62 63 60 61 59 59 59 58 58 59 59 60 60 57 56 56 57 57 58 58 58 58 58 59 60 60 59 60 59 58 56 56 50 45 42 41 40 40 42 41 40 42 43
64 63 62 60 60 59 59 60 60 59 60 60 61 59 58 57 57 56 57 57 58 59 59 58 59 59 60 58 58 58 56 45 40 40 39 38 38 38 37 37 36 38 37
58 57 63 61 63 62 60 60 60 60 60 59 59 60 59 59 57 57 56 56 56 57 54 51 47 43 43 39 42 45 43 41 38 36 35 36 36 35 34 34 34 33 33
55 55 55 56 54 64 64 61 60 61 60 59 60 59 59 58 57 57 57 54 47 45 42 40 39 37 38 38 39 38 38 36 35 34 34 34 34 34 34 33 33 33 33
52 52 52 51 52 51 63 63 61 60 60 60 60 60 59 59 58 53 46 43 41 39 37 36 36 35 35 36 36 35 34 33 32 32 32 32 32 32 32 31 30 31 32
51 50 50 49 49 48 54 63 61 60 59 59 60 60 60 50 45 42 39 38 37 36 35 35 34 33 33 35 35 34 32 31 31 31 30 30 29 31 33 30 28 28 28
48 47 47 47 45 45 48 57 56 58 50 47 47 50 47 44 40 38 37 36 36 34 34 33 34 34 33 34 34 33 32 30 30 30 30 31 30 31 30 28 26 23 24
44 45 43 42 43 44 45 43 43 42 45 44 44 43 42 39 38 36 35 34 33 32 32 31 32 33 33 34 34 34 32 30 29 29 28 30 30 30 30 28 25 23 24
41 42 40 40 43 44 44 41 40 42 43 42 40 38 38 38 36 34 33 33 32 30 29 29 29 31 31 32 33 32 32 32 30 28 28 28 29 29 27 25 25 24 21
40 40 39 39 40 41 41 39 40 41 40 38 37 36 36 35 34 33 33 31 31 30 29 27 26 25 27 30 31 31 30 29 27 28 28 28 27 26 24 24 23 20 17
40 40 39 36 36 37 38 38 38 39 37 35 35 35 34 34 33 33 32 30 29 27 26 25 23 24 24 25 27 28 27 27 26 25 24 23 23 21 20 20 20 18 17
38 39 36 35 34 35 34 35 35 35 32 32 31 30 29 28 27 27 27 27 27 27 24 23 24 22 22 25 27 26 24 23 23 21 20 19 18 16 16 16 16 16 15
34 34 35 35 34 34 33 33 34 33 30 28 27 26 26 25 25 24 24 28 27 28 28 27 25 26 28 29 28 27 26 24 22 17 14 12 12 12 12 11 11 12 11

GFSMW_sfc_temp_111.txt.gz
Temp
68 66 61 60 59 60 60 60 59 59 59 60 60 60 60 61 61 62 64 64 64 63 61 62 60 61 60 58 59 58 58 53 57 55 54 53 54 54 55 55 55 55 56
62 62 57 59 59 59 60 59 60 59 58 59 59 61 61 61 62 63 64 65 64 63 62 62 61 61 60 57 59 61 54 55 57 55 53 48 52 54 55 55 57 55 55
62 60 57 57 59 58 59 59 59 59 57 57 57 58 60 61 60 61 62 63 64 64 64 62 62 62 62 60 60 61 61 57 54 59 54 50 49 51 52 54 55 55 53
65 63 59 56 57 59 59 58 59 58 57 57 56 58 59 59 61 61 62 63 64 64 64 63 63 63 62 62 62 62 62 58 57 54 57 57 55 50 50 53 52 55 55
65 61 60 59 58 58 57 58 58 58 60 58 57 56 55 57 59 61 61 62 62 64 64 64 64 63 63 62 62 61 58 60 60 58 54 54 53 52 52 48 50 52 54
63 62 63 60 57 56 56 57 57 60 61 60 57 57 55 55 56 58 59 61 62 63 63 64 63 63 63 62 62 60 59 57 57 57 57 55 54 52 51 50 49 50 53
63 63 61 57 56 55 56 57 57 59 60 60 59 57 58 59 57 57 58 59 61 61 62 62 62 62 62 61 60 59 58 58 57 56 56 56 57 56 54 53 51 50 52
62 64 62 58 56 56 56 57 57 59 60 60 59 60 59 59 60 60 60 61 61 61 60 61 62 62 61 60 60 59 58 57 57 56 56 56 56 55 55 54 52 48 49
59 63 61 58 57 56 56 57 57 59 59 60 58 59 59 59 59 60 61 61 62 61 60 60 60 60 60 60 59 58 57 57 57 57 56 56 56 55 56 55 55 53 50
57 61 60 58 57 58 57 57 57 58 57 60 59 58 58 58 58 59 59 59 59 60 59 59 60 60 59 59 59 58 57 57 56 56 56 56 57 57 56 56 56 55 54
56 59 62 59 58 57 57 57 56 56 56 59 59 57 58 57 57 57 59 59 59 59 59 59 59 58 58 59 58 58 57 56 56 56 56 57 58 57 57 56 56 55 55
56 60 61 57 56 56 57 57 56 56 57 58 59 57 57 58 57 57 57 58 58 58 58 58 58 58 58 57 57 57 57 56 55 56 56 56 57 56 56 55 55 54 54
56 58 61 57 57 57 57 58 56 56 57 58 59 58 58 58 57 57 57 57 58 58 58 58 57 57 57 57 57 57 58 57 57 56 55 51 50 50 48 48 47 47 48
54 58 58 57 57 57 57 58 58 56 57 57 60 58 57 57 57 57 57 55 57 57 58 58 58 58 58 58 58 58 56 53 47 44 42 41 41 42 43 41 41 43 42
54 56 55 56 57 57 58 58 58 56 56 56 57 58 58 57 56 56 56 57 56 56 57 57 57 57 57 56 55 55 52 44 40 39 38 38 38 37 37 37 36 37 37
53 55 55 55 55 56 58 58 58 57 56 56 57 58 57 55 55 55 55 56 57 55 55 52 50 47 45 40 44 47 44 41 38 35 35 36 36 35 35 35 34 33 33
51 52 51 52 52 52 55 59 59 59 57 57 56 58 56 55 54 55 54 54 49 47 43 42 41 39 39 39 40 39 39 37 35 35 34 34 34 34 33 33 33 32 33
50 50 49 49 50 50 52 58 61 59 58 57 57 57 56 55 55 53 47 43 42 40 38 37 37 36 36 37 37 35 34 33 33 33 33 32 32 32 31 30 29 30 29
48 48 48 48 47 46 48 57 59 59 58 57 57 58 57 51 47 43 40 39 38 36 35 35 34 34 34 35 35 34 32 30 29 30 31 31 31 32 32 28 27 26 27
45 45 45 45 45 45 49 50 54 55 54 56 56 54 49 46 41 39 38 37 36 34 34 33 33 34 32 35 35 34 31 29 28 30 30 31 29 30 29 27 25 22 22
42 43 42 40 42 44 45 46 45 43 43 44 46 46 45 43 40 37 37 35 34 33 32 32 32 32 33 33 34 34 31 29 29 28 27 28 28 28 27 26 24 22 23
40 41 41 39 40 42 42 42 43 43 42 40 39 39 38 38 37 35 34 34 33 31 30 29 29 31 31 33 33 33 32 31 28 26 26 26 26 26 25 24 24 23 20
40 41 39 38 38 39 40 37 39 42 39 37 35 34 34 34 35 34 32 31 31 30 29 29 28 28 29 30 31 31 30 29 26 26 26 26 25 24 22 22 21 19 17
38 39 37 35 34 35 36 37 37 38 37 35 34 33 32 31 31 31 31 30 28 27 27 26 25 26 26 26 26 26 26 27 24 23 22 21 20 19 19 19 18 17 16
36 37 35 33 32 33 33 34 34 34 30 30 29 28 28 27 27 27 27 26 27 27 25 26 26 25 24 25 25 24 23 22 21 20 19 17 17 16 15 15 15 15 14
33 34 34 33 32 32 31 32 33 32 29 28 27 26 26 27 26 26 25 29 28 29 29 29 28 27 28 28 27 26 25 24 22 17 14 12 12 12 12 10 10 11 11

GFSMW_sfc_temp_114.txt.gz
Temp
65 62 62 59 57 59 59 60 60 59 60 61 60 60 59 60 62 62 62 62 63 63 62 60 59 59 59 58 58 59 57 52 55 53 52 52 54 54 55 56 56 57 58
64 66 60 56 57 59 60 60 60 59 61 62 62 61 61 61 62 62 62 62 62 61 61 60 60 59 58 57 57 59 55 53 57 53 52 50 53 53 54 54 56 55 57
60 63 61 55 55 57 59 60 60 60 60 62 62 60 60 60 60 61 61 62 62 61 61 61 60 59 59 57 58 59 60 55 53 60 54 49 49 51 52 53 55 56 55
59 62 59 54 55 57 57 59 59 60 58 58 61 60 60 59 60 60 62 62 62 61 60 61 61 60 59 58 58 60 60 57 55 54 56 56 54 50 49 53 53 55 55
57 59 61 57 56 57 56 58 60 60 58 58 59 60 59 60 61 61 61 62 63 62 61 60 60 60 59 58 59 58 57 57 59 55 54 54 53 53 52 50 52 52 55
56 59 63 59 55 56 56 59 59 59 58 57 55 56 55 58 59 60 60 61 62 62 62 61 60 60 59 58 58 59 57 56 59 56 55 55 54 53 52 50 50 51 54
54 56 58 59 56 57 57 58 59 58 58 57 57 55 55 58 59 60 61 60 61 61 61 62 60 60 60 60 60 59 57 56 57 55 55 56 56 56 54 53 51 51 53
54 56 58 61 57 58 57 58 58 58 57 58 57 57 56 56 56 57 59 60 61 62 62 63 62 62 62 61 60 59 59 57 56 56 56 55 55 55 55 54 52 50 50
53 55 58 60 55 57 58 58 59 60 57 57 59 59 59 59 58 57 57 58 60 61 61 63 62 62 62 60 60 59 57 57 57 56 56 56 56 55 55 54 54 52 48
53 56 58 60 61 57 59 57 59 60 58 58 60 59 59 59 59 58 59 58 60 61 61 61 61 61 61 61 60 58 58 58 57 57 57 56 56 56 55 55 54 54 53
51 54 57 59 61 58 58 57 57 59 59 59 60 58 58 58 58 58 59 59 59 60 60 60 60 60 60 60 59 59 59 58 57 57 57 56 57 56 56 55 55 55 55
53 54 56 59 55 56 57 57 57 58 58 57 59 58 58 58 57 57 58 58 58 59 59 59 59 59 59 59 59 58 58 57 56 56 56 55 56 55 56 55 55 55 55
53 53 56 56 55 56 57 57 57 57 58 55 59 57 57 57 57 57 57 57 57 57 58 58 58 58 58 59 59 58 57 57 57 56 55 55 54 54 51 50 50 48 48
52 52 54 54 56 57 57 57 57 58 57 56 58 57 57 57 57 57 57 57 57 57 57 58 57 57 57 57 57 57 56 52 48 45 44 44 46 46 45 43 43 43 41
52 51 52 52 53 55 57 57 57 57 57 55 57 57 57 57 57 56 56 56 57 57 57 57 57 57 57 56 56 55 48 42 39 39 38 38 39 39 39 39 39 39 37
52 52 52 52 51 52 52 57 57 56 56 55 56 58 56 56 56 55 56 56 56 56 56 53 52 49 47 43 45 47 43 41 38 35 35 36 36 35 35 35 34 35 34
51 50 50 49 49 49 50 51 57 57 55 56 58 57 56 55 55 55 55 54 50 48 45 44 45 42 42 41 41 40 40 38 36 34 34 34 34 34 33 33 32 31 31
48 48 47 47 47 47 48 49 53 57 56 55 57 57 56 55 55 54 47 44 43 41 39 38 38 37 37 38 38 37 36 35 34 34 33 32 31 32 31 29 27 26 27
45 45 46 45 45 46 47 48 51 57 57 55 55 55 56 53 49 45 42 40 39 37 35 35 35 34 34 35 35 34 32 31 31 32 32 32 30 32 33 28 25 25 26
43 43 44 43 43 43 45 48 54 55 55 55 55 55 52 49 45 41 39 37 36 34 34 33 34 34 33 35 34 34 32 30 29 29 29 30 29 30 29 26 24 21 22
40 42 43 41 40 42 43 44 43 42 45 46 47 48 47 44 41 38 37 35 34 33 32 31 32 32 33 33 34 34 32 29 28 26 26 26 28 28 27 26 23 21 22
40 41 39 38 38 39 41 40 39 40 41 41 39 38 39 39 38 36 35 34 33 31 30 30 30 31 32 33 33 32 31 30 26 24 24 25 26 26 24 23 22 21 19
39 39 37 36 36 36 37 36 37 39 37 36 35 35 35 35 34 33 32 31 31 30 29 29 28 28 30 30 31 30 29 28 25 25 26 26 25 23 22 21 20 18 16
36 37 35 33 32 34 34 34 36 37 35 32 31 32 32 31 31 32 31 30 30 29 28 26 25 25 25 26 27 26 26 26 23 22 20 19 19 18 17 17 17 16 15
35 35 33 32 31 32 32 33 33 32 30 29 29 29 29 28 27 28 28 28 28 29 27 26 26 24 22 23 24 23 21 21 20 19 18 16 16 15 14 14 14 15 14
32 32 32 31 30 31 30 31 32 31 29 28 28 28 27 27 27 27 26 30 30 30 30 30 27 26 28 28 27 26 25 24 22 17 14 12 12 12 12 11 11 11 10

GFSMW_sfc_temp_117.txt.gz
Temp
73 73 71 72 71 69 69 68 67 67 66 63 61 61 60 61 61 63 65 66 65 64 63 63 61 61 59 64 67 67 65 66 68 65 64 65 66 66 68 70 70 69 69
70 70 70 69 68 68 67 67 67 65 67 67 65 65 63 62 63 65 65 64 64 63 63 62 61 60 60 61 63 66 66 66 66 66 65 58 61 64 65 67 68 67 70
65 67 67 68 67 66 65 66 67 64 67 68 67 67 63 62 62 62 62 62 62 63 61 61 61 60 60 60 64 66 66 63 65 67 67 59 60 60 64 64 67 67 67
65 66 65 66 67 66 67 67 65 65 65 67 67 65 62 60 62 62 62 62 62 61 61 61 59 59 61 60 65 65 65 64 62 65 67 70 66 63 56 62 64 66 65
63 63 64 65 68 66 65 66 65 64 63 63 65 66 61 62 65 64 62 63 63 61 61 59 58 57 60 63 63 65 66 68 67 65 65 65 65 65 64 60 61 64 66
63 64 65 67 68 63 63 63 63 62 61 62 64 65 62 61 62 63 61 63 62 61 61 59 58 57 59 60 63 63 65 65 67 69 67 66 65 64 65 63 63 64 65
61 62 63 64 65 64 60 62 61 60 60 61 62 63 63 65 65 63 63 60 62 62 60 61 58 58 59 60 61 63 63 64 65 65 66 67 69 67 66 64 58 58 63
61 62 63 63 65 65 63 60 60 60 60 61 62 64 66 65 65 64 63 63 61 62 63 62 62 60 60 60 61 63 63 64 63 64 64 64 62 63 63 61 58 56 60
60 60 62 63 64 64 65 59 60 61 60 61 62 63 64 62 62 61 62 63 63 64 62 62 62 62 60 61 62 63 62 63 62 61 61 61 61 61 60 60 58 56 52
59 60 61 62 63 64 65 62 60 60 60 62 64 65 65 65 63 63 63 63 62 62 61 62 61 61 61 61 60 61 62 61 60 60 60 59 58 58 57 56 57 55 54
58 59 61 63 63 63 64 60 58 60 59 62 65 65 63 62 61 61 62 65 64 65 64 63 61 60 60 60 60 60 60 59 58 58 57 57 57 56 56 56 56 55 54
58 59 60 62 61 57 59 59 58 59 59 63 64 64 63 61 60 60 62 63 61 62 62 61 61 61 60 60 59 58 58 58 57 57 57 56 57 57 57 56 56 56 56
57 58 59 58 58 57 55 58 58 59 60 61 63 62 62 60 59 61 60 61 60 59 59 59 59 58 60 59 59 59 58 58 57 58 57 58 57 56 56 56 55 54 51
57 57 57 55 55 56 54 54 57 58 58 59 63 62 61 59 59 59 59 60 60 57 58 58 58 58 59 59 59 58 58 57 57 56 56 56 56 55 53 50 48 46 45
57 57 55 54 53 53 53 52 56 57 58 58 61 62 61 60 59 58 59 58 58 59 58 57 57 57 57 57 57 55 48 45 41 40 40 40 40 39 40 42 42 42 40
55 54 54 53 49 50 50 50 51 57 58 58 60 62 59 58 58 57 57 57 57 57 56 55 53 52 49 42 43 46 43 41 38 35 35 36 36 34 34 33 33 35 35
52 51 50 49 48 47 48 48 49 52 57 57 60 60 58 57 57 57 57 56 52 50 47 46 45 43 43 41 40 39 40 37 35 34 34 33 34 33 31 31 31 30 30
48 48 47 47 48 47 46 46 49 52 56 57 59 59 58 57 57 56 50 47 46 44 42 40 39 38 38 38 38 37 36 34 34 33 33 32 31 31 30 28 26 25 26
46 45 46 46 46 46 44 45 48 52 55 56 57 58 59 56 53 48 44 42 40 38 37 37 36 35 35 36 36 35 33 32 31 32 32 31 30 31 32 27 25 24 24
44 44 45 45 43 42 43 44 44 47 54 55 57 58 58 52 48 43 41 39 37 35 34 34 34 34 34 35 35 35 33 30 29 29 30 31 29 30 30 27 25 21 22
42 43 43 40 39 40 41 40 40 38 40 47 53 52 52 47 44 40 38 36 34 34 33 32 32 33 34 34 35 34 32 29 27 27 27 28 29 28 28 27 25 22 23
40 41 39 37 37 38 38 37 36 38 38 39 42 41 41 40 39 37 36 35 34 32 31 30 30 31 32 33 33 32 30 29 26 24 25 26 27 27 25 24 24 23 22
38 39 37 35 35 35 35 33 34 36 35 35 35 36 36 36 36 34 33 33 33 32 30 29 28 28 29 29 31 30 28 27 25 25 26 26 25 24 22 22 21 20 19
35 36 35 33 32 33 33 32 33 33 33 31 31 32 33 33 33 33 33 32 31 30 29 27 26 26 26 26 27 26 26 27 24 22 20 20 20 19 19 18 18 20 21
34 35 33 31 30 31 31 32 32 32 31 30 30 30 30 29 29 29 29 29 30 30 27 27 27 25 24 24 25 23 21 20 20 19 19 17 18 17 17 17 19 20 20
31 31 32 30 29 29 29 30 31 31 30 29 28 28 28 29 29 28 28 31 30 30 30 29 27 26 27 27 27 26 25 24 22 21 19 17 17 17 16 15 15 17 16

GFSMW_sfc_temp_120.txt.gz
Temp
82 83 83 82 81 81 81 80 79 78 78 73 70 66 65 65 66 69 70 68 70 67 65 64 64 63 62 62 64 67 73 74 74 71 68 71 74 74 73 74 77 76 76
78 79 80 80 79 79 78 78 78 77 78 73 71 70 68 68 69 66 69 67 69 68 66 65 63 62 61 61 64 67 72 74 75 69 69 60 64 70 71 73 76 74 77
73 75 76 77 78 78 77 78 79 77 75 77 71 72 70 68 64 64 64 66 71 71 67 65 62 62 61 60 61 66 67 70 72 74 71 64 62 67 71 71 74 73 74
73 74 75 76 76 76 76 77 78 75 69 72 69 71 69 68 70 69 67 69 71 69 66 64 63 61 62 61 61 65 69 73 70 74 77 76 75 66 62 69 71 73 72
71 73 75 76 77 75 73 75 75 68 68 69 73 73 74 75 73 65 66 67 64 65 67 63 60 61 61 62 62 63 70 73 72 72 72 73 73 73 71 64 67 71 73
71 73 76 76 76 75 72 69 69 67 66 67 71 73 74 73 70 66 68 67 62 61 62 60 59 59 59 60 61 63 68 71 73 73 72 72 70 71 72 71 68 67 71
69 71 72 73 73 72 73 70 64 64 63 63 69 71 71 72 69 69 68 67 62 60 59 60 58 58 58 59 61 63 69 70 72 71 73 74 74 76 74 73 70 68 69
69 70 71 71 72 71 73 73 70 63 63 62 64 68 71 70 68 70 70 66 64 62 62 60 60 57 57 58 60 63 68 70 71 71 72 74 74 76 75 73 68 64 65
67 70 71 71 71 70 69 72 72 68 64 61 63 65 67 72 71 71 70 69 66 64 64 63 60 59 57 57 60 63 65 67 69 69 71 73 74 73 73 70 68 64 56
68 69 70 71 72 71 69 64 70 67 65 63 62 67 69 73 72 70 70 69 65 64 62 61 61 61 60 59 59 61 64 65 65 70 69 70 68 66 65 65 66 65 62
67 68 69 71 72 71 69 64 62 63 63 63 62 66 68 70 70 66 66 67 65 63 61 62 61 60 60 61 60 58 61 65 66 68 68 66 64 61 61 61 60 60 60
68 68 69 69 70 68 67 65 56 60 61 62 62 64 67 71 70 68 69 68 67 69 68 65 62 60 59 60 60 60 62 66 66 65 64 63 61 60 59 59 60 57 57
67 68 69 67 66 65 65 63 57 55 60 62 62 62 66 69 67 68 68 64 63 64 63 63 62 61 61 59 59 60 60 60 61 62 62 61 58 56 56 56 56 56 55
66 67 67 67 66 64 62 61 53 53 59 60 60 61 65 67 68 69 65 63 63 63 60 61 61 60 59 60 60 59 58 58 58 58 58 57 56 57 56 56 56 54 50
64 65 65 65 64 60 59 56 51 52 55 58 59 61 65 67 68 67 63 63 63 61 61 61 60 57 58 58 58 58 57 55 49 44 43 42 43 42 45 49 46 45 41
62 62 62 61 58 57 53 50 50 50 51 57 58 64 65 65 66 65 62 61 60 59 59 59 55 51 47 41 43 46 44 41 39 36 35 35 36 35 34 34 34 37 37
58 58 58 57 56 56 52 47 47 49 50 54 58 63 66 65 65 64 62 58 56 53 48 47 46 43 42 39 40 40 40 38 37 35 34 33 33 32 31 30 30 30 30
55 56 56 55 55 55 54 47 47 48 49 51 57 61 64 64 65 62 58 52 50 47 43 40 40 39 38 37 37 36 35 34 34 33 32 31 30 30 29 27 25 25 26
53 54 54 53 52 50 48 46 46 46 47 51 56 59 62 61 60 54 50 46 43 41 40 39 38 37 36 36 36 36 33 32 31 31 31 30 29 31 32 27 25 25 25
50 50 50 50 47 44 44 44 42 41 41 42 51 58 60 57 52 47 43 42 39 37 37 35 36 36 35 36 36 36 33 31 29 29 29 30 29 30 29 27 25 22 22
46 46 46 43 40 40 40 39 39 37 39 40 42 55 56 51 47 42 40 38 36 35 34 33 34 35 35 35 35 35 32 31 29 28 28 29 30 30 29 29 26 24 25
42 43 41 39 39 38 37 36 34 35 37 38 38 46 46 44 42 39 37 36 35 33 32 31 31 32 32 33 33 33 32 32 29 27 27 28 29 28 27 26 26 25 25
40 41 39 38 37 35 35 33 34 34 36 36 35 34 38 39 39 37 35 34 34 33 31 29 28 28 30 30 31 31 29 29 26 26 27 28 27 26 25 25 25 24 25
39 40 40 37 34 33 33 32 34 34 34 33 32 33 32 33 34 34 34 33 33 31 30 28 27 27 27 28 28 28 27 28 26 24 22 22 21 21 22 23 24 25 27
37 38 37 37 34 31 30 32 33 34 31 32 32 32 32 30 30 31 31 31 31 31 29 28 27 25 24 26 27 25 22 20 20 20 20 21 22 24 24 25 26 27 27
34 34 34 34 35 30 28 30 31 33 31 30 30 30 31 30 29 28 28 31 30 30 30 29 27 26 27 27 27 26 25 24 24 24 24 24 25 25 25 23 22 23 22

GFSMW_sfc_temp_123.txt.gz
Temp
87 88 87 86 85 85 84 84 83 83 83 83 81 80 76 71 69 71 78 75 72 73 69 69 67 65 63 63 63 62 63 71 73 69 66 69 70 72 73 76 78 77 77
84 84 84 83 83 82 83 83 83 83 83 84 83 80 75 67 68 70 74 76 74 70 70 69 65 65 63 62 62 62 62 67 70 69 65 59 62 67 72 74 75 75 77
80 80 80 81 80 80 78 81 83 84 82 83 81 71 69 67 64 67 70 74 73 73 70 67 65 63 63 61 61 62 62 64 68 70 69 61 61 62 68 70 73 74 75
78 79 79 80 80 79 78 80 82 83 82 81 77 68 66 65 65 67 69 72 73 73 73 71 66 63 63 62 62 62 62 65 66 69 73 74 73 64 59 68 68 74 74
75 76 78 79 81 79 78 76 79 80 78 76 76 70 66 72 72 73 69 69 71 73 73 70 66 62 62 62 62 61 62 65 66 70 69 72 75 72 68 62 65 67 75
74 76 78 79 80 77 76 77 74 74 70 69 70 68 67 72 72 72 69 70 69 70 71 70 65 64 62 61 61 62 61 63 67 70 73 73 72 68 71 68 67 66 72
72 74 75 76 77 76 75 76 78 72 70 68 69 67 69 69 73 71 70 68 64 64 66 65 62 61 62 61 61 61 61 63 66 67 72 75 74 76 75 73 69 67 68
72 73 74 75 76 75 74 73 77 76 70 69 67 65 68 70 76 74 71 71 67 64 64 62 61 61 60 59 61 61 61 62 62 65 71 74 74 76 76 74 67 64 65
70 73 74 74 75 76 74 71 72 76 70 67 68 64 65 69 74 75 70 73 69 67 64 62 60 59 58 59 59 59 60 61 62 62 68 69 73 74 75 76 74 68 60
70 72 74 74 75 75 74 72 70 72 72 69 67 63 63 67 71 73 71 71 72 67 63 62 60 58 58 58 58 59 60 60 61 64 68 69 72 72 74 74 74 71 65
70 72 72 74 75 74 73 70 69 67 67 68 66 64 63 65 68 70 70 71 70 70 66 62 60 58 57 58 58 58 59 60 62 66 67 67 69 70 70 69 69 64 64
70 73 72 73 73 71 71 70 66 66 64 65 65 65 62 64 66 68 71 72 70 70 65 62 61 59 58 57 57 57 58 59 61 63 65 66 67 66 66 65 62 62 63
70 72 73 73 72 71 68 67 67 65 65 63 62 63 62 63 65 66 69 67 68 70 67 66 64 61 59 58 58 58 58 58 60 62 65 67 67 64 62 61 60 60 55
69 71 72 72 72 70 66 65 62 63 61 57 60 61 62 63 64 68 67 65 68 69 69 68 68 66 61 60 59 58 58 58 59 59 62 64 64 62 60 58 56 54 53
67 69 70 70 68 67 65 64 60 61 59 54 54 60 61 62 64 65 64 65 66 67 65 63 62 62 61 61 60 59 58 58 59 55 53 54 53 45 47 54 53 53 45
66 68 67 65 63 63 62 62 58 54 56 52 52 58 60 61 63 63 63 63 64 64 62 61 57 53 50 41 44 52 54 50 43 39 38 40 39 36 36 35 34 40 42
63 63 61 61 61 60 60 57 56 55 51 51 53 54 60 61 65 63 63 62 61 58 52 49 48 45 43 40 40 40 40 38 37 35 35 33 34 34 32 31 31 31 32
60 60 60 60 60 59 55 51 53 53 50 49 50 53 59 62 66 62 60 56 54 48 44 42 42 40 39 38 37 37 36 34 33 33 33 33 32 32 30 27 25 25 26
56 56 58 57 56 52 49 49 48 49 48 45 46 47 57 64 65 58 52 48 45 43 40 40 38 38 37 36 36 36 34 32 31 32 31 31 30 31 32 27 24 24 25
51 51 53 52 49 46 45 46 44 43 42 40 41 43 45 62 58 49 46 44 41 39 38 36 37 36 36 36 37 36 34 30 29 29 29 30 29 30 29 27 25 21 22
47 49 49 46 43 43 41 41 41 38 38 39 40 42 44 54 51 45 42 39 37 36 35 34 35 35 36 35 36 36 34 31 29 28 27 28 30 30 30 29 26 25 26
46 49 48 46 44 40 37 37 37 37 37 38 38 37 44 47 45 42 38 37 35 34 33 32 31 32 33 34 34 34 33 32 29 27 28 29 29 29 28 27 28 27 27
46 48 47 46 45 41 35 33 34 35 35 35 35 35 36 40 41 38 36 35 35 33 31 30 29 29 31 31 32 32 31 30 28 28 29 29 29 28 27 27 27 26 25
43 45 44 43 41 40 36 32 34 35 33 32 33 33 33 32 35 36 35 34 33 32 30 28 27 27 27 27 28 28 28 29 27 26 24 24 24 24 25 26 27 29 31
40 40 38 37 38 38 35 31 32 33 32 31 32 32 32 31 30 30 31 31 32 33 30 28 28 26 25 26 28 27 24 22 22 22 22 22 22 22 23 27 29 30 31
35 33 33 33 33 35 33 29 31 32 31 30 30 30 31 30 29 28 28 31 30 30 30 30 28 27 28 28 27 26 26 26 26 24 23 23 24 27 28 27 27 27 27

GFSMW_sfc_temp_126.txt.gz
Temp
84 85 84 82 81 80 79 78 76 75 74 73 73 73 70 71 71 72 72 73 72 72 71 68 67 68 65 64 64 63 61 61 63 62 60 62 68 68 65 69 69 69 69
81 83 81 79 78 78 78 77 77 76 76 76 73 74 74 72 71 70 71 71 72 72 70 67 66 67 64 64 63 63 61 61 61 61 61 54 59 63 66 65 66 66 68
77 80 78 76 76 75 75 77 77 77 75 75 75 72 69 67 64 66 67 70 70 69 69 68 65 65 64 62 63 62 62 59 60 62 63 55 53 59 62 62 62 63 63
78 78 77 76 75 72 74 75 75 77 78 75 74 68 65 64 65 66 66 68 70 68 68 68 66 64 64 62 63 63 62 62 59 61 68 64 63 57 54 61 61 66 65
75 75 75 76 77 73 73 73 73 73 75 74 72 70 66 67 66 66 64 65 68 68 68 67 66 64 64 63 62 62 62 62 61 62 63 64 64 63 59 56 58 63 64
72 74 75 75 75 71 71 71 72 71 69 68 67 69 67 66 65 65 64 65 66 67 68 68 66 64 63 62 62 62 62 61 61 63 64 64 63 62 60 57 59 57 63
69 70 72 72 72 71 70 69 70 72 69 67 66 66 67 67 67 67 66 65 65 66 66 66 65 63 62 62 62 61 61 61 60 62 64 67 66 68 65 62 59 59 59
70 71 72 72 72 72 70 68 68 69 69 67 65 65 65 66 67 65 67 67 66 65 64 64 63 63 62 62 61 61 61 61 61 61 63 65 68 67 66 65 62 57 58
68 71 72 71 71 70 69 67 68 68 69 68 65 66 64 65 65 67 68 68 66 65 64 62 61 61 61 61 60 60 60 60 60 61 61 63 68 66 69 65 68 62 55
68 70 71 71 71 71 70 67 67 66 66 66 66 66 65 64 65 65 66 67 65 64 63 61 60 59 59 59 59 60 60 59 59 61 61 62 62 64 63 63 66 65 62
67 68 69 71 71 70 69 66 65 64 64 64 63 64 64 63 63 64 66 68 66 65 63 61 59 59 58 58 58 58 59 59 59 60 60 61 61 60 62 62 61 62 62
68 68 69 71 70 70 69 66 64 63 61 63 62 62 63 63 63 63 64 64 66 65 63 62 60 58 58 57 57 57 59 59 59 59 59 59 61 61 61 60 59 59 59
67 68 69 69 70 70 65 65 62 60 61 60 59 59 62 62 61 63 63 65 65 65 64 62 59 58 57 57 57 58 59 59 59 59 60 59 60 61 60 58 57 56 56
66 67 67 68 66 65 64 63 61 59 59 58 57 56 59 61 62 62 63 63 64 64 65 63 61 60 58 57 57 58 58 58 59 59 59 60 60 60 59 58 57 55 53
65 66 67 64 63 62 61 61 60 59 57 54 55 55 56 61 61 61 62 62 62 63 64 63 63 62 59 58 57 57 57 57 57 56 56 55 55 52 56 58 54 54 48
64 66 64 62 61 60 59 59 56 54 55 54 53 55 54 58 60 60 60 61 61 61 61 60 57 53 51 41 46 53 57 56 56 54 46 45 42 40 39 38 38 45 45
62 60 58 58 57 57 56 52 51 53 52 52 52 52 51 54 59 60 60 59 59 56 51 49 48 44 42 40 41 40 42 40 40 41 40 36 36 36 34 33 33 33 34
55 55 55 56 56 55 51 49 50 50 49 49 50 49 47 50 57 59 59 56 52 48 45 43 42 39 38 38 38 37 36 34 34 34 34 34 32 33 33 31 29 27 28
50 51 53 53 52 49 46 45 46 47 46 45 44 45 44 44 48 54 54 49 45 42 40 39 38 37 36 36 37 36 35 33 32 32 32 33 33 34 35 30 27 26 27
49 49 50 50 47 45 43 41 42 42 41 39 40 42 43 43 45 50 49 45 42 39 38 36 37 36 35 36 37 36 34 30 29 30 30 32 31 32 32 29 27 23 24
47 50 50 48 47 45 41 37 37 37 37 39 39 40 42 41 43 47 44 40 37 36 34 34 34 35 35 35 36 36 33 31 29 28 27 29 30 30 30 29 26 24 25
46 48 47 46 47 44 40 35 34 36 36 37 37 38 39 40 46 43 41 38 36 34 32 32 31 32 33 34 35 34 33 32 28 26 27 28 29 29 28 27 28 28 27
43 44 43 43 43 42 39 33 32 34 34 34 34 35 37 36 37 39 37 36 35 33 32 30 29 29 31 31 33 32 31 30 27 28 29 30 29 29 27 28 28 27 27
38 39 38 37 36 37 37 34 32 32 32 32 32 33 33 32 33 33 35 35 34 33 31 29 27 27 27 27 28 28 28 30 28 27 26 26 26 26 26 27 28 28 28
35 35 33 32 32 34 33 33 31 30 30 31 31 31 31 31 30 29 29 32 32 33 31 29 28 25 24 26 28 27 24 23 24 24 25 24 24 24 25 26 27 28 28
32 31 30 29 29 30 31 31 30 29 29 29 30 29 29 28 28 28 27 30 31 31 31 31 29 28 29 29 28 27 27 27 27 24 22 21 22 22 22 22 23 25 25

GFSMW_sfc_temp_129.txt.gz
Temp
73 75 74 71 69 69 70 70 69 66 66 64 66 66 66 66 67 69 69 70 70 69 68 67 66 65 63 64 63 62 61 61 62 60 59 59 62 65 65 64 64 64 64
73 75 69 68 67 67 67 68 68 68 67 65 64 65 68 67 69 68 67 67 69 69 67 67 66 66 64 63 62 62 61 60 62 60 58 55 58 62 64 66 65 63 64
71 71 70 65 66 64 66 68 67 67 67 67 65 63 63 63 64 67 67 69 67 69 69 67 66 66 65 63 63 62 62 60 60 61 59 54 53 58 60 62 65 64 63
70 72 67 65 62 63 67 68 68 67 68 67 65 64 61 60 62 65 67 67 67 67 68 67 66 66 64 63 63 63 62 62 59 60 64 63 62 57 55 59 60 65 63
69 66 64 66 65 66 66 66 67 67 65 65 64 62 61 61 61 62 64 66 65 67 66 66 64 64 64 64 63 62 62 62 62 62 61 62 63 63 60 56 58 61 64
65 67 67 66 64 64 64 65 64 64 64 64 63 61 62 61 61 61 63 64 65 65 65 65 64 64 63 62 62 62 62 61 61 62 62 63 61 60 60 58 59 58 60
63 62 64 65 63 62 62 65 63 63 63 63 62 62 63 63 63 63 62 63 63 64 64 64 64 63 63 63 63 63 62 62 60 61 61 63 63 66 63 61 58 57 55
63 63 64 65 64 62 61 63 63 62 64 62 61 62 62 62 64 64 63 65 64 64 65 65 65 64 63 63 62 62 62 62 61 61 60 61 62 65 65 63 59 54 53
59 61 64 64 64 61 60 61 60 61 60 60 63 63 63 63 64 64 64 65 65 64 63 63 63 63 62 62 62 61 60 61 61 60 61 61 63 62 65 66 64 60 52
60 63 62 63 62 61 60 59 60 59 58 58 59 62 62 62 63 63 63 64 64 64 62 60 61 60 60 60 60 60 61 60 60 60 60 61 63 61 62 64 64 63 61
60 62 62 64 63 62 60 58 57 57 55 55 56 56 59 62 61 62 62 63 64 63 62 61 59 59 58 59 59 59 60 59 59 60 60 60 62 61 58 61 63 61 62
62 63 62 62 63 59 58 56 56 56 55 55 54 55 56 59 61 61 62 63 63 63 62 60 58 59 58 58 58 58 58 58 58 59 59 60 60 60 60 58 61 60 58
62 62 62 59 59 58 59 57 55 55 54 53 52 53 54 56 59 61 62 62 62 62 62 60 58 58 58 57 57 58 58 58 59 59 59 59 59 58 59 57 58 59 56
60 59 58 57 56 57 57 56 54 53 53 51 51 51 53 54 55 59 61 62 62 62 61 61 60 59 58 58 57 57 58 58 58 59 59 60 59 59 58 56 55 55 51
59 59 56 54 55 54 54 53 51 51 51 51 51 51 52 53 54 56 60 62 62 62 62 61 60 59 58 58 57 57 57 57 57 57 59 58 57 52 54 57 54 52 47
53 54 54 54 53 51 49 48 47 47 49 49 49 51 51 50 50 53 57 60 61 60 59 60 60 59 57 47 46 52 56 56 55 54 52 55 50 49 46 45 46 49 47
48 48 48 49 48 46 46 43 44 46 47 47 47 48 48 46 46 49 50 59 59 58 54 53 51 48 46 40 43 44 52 52 51 51 43 38 41 41 38 36 36 35 37
46 46 46 46 45 44 42 42 43 44 44 45 43 42 42 43 44 46 48 55 55 53 49 45 43 40 39 39 39 38 37 35 34 34 35 36 34 37 35 36 33 32 32
45 46 47 45 42 41 40 39 40 41 42 40 38 40 40 40 42 42 44 48 48 47 42 40 39 37 36 37 36 37 35 33 32 33 33 33 34 35 38 34 32 31 30
45 46 48 46 41 38 38 37 35 37 36 36 36 38 39 40 40 40 42 47 46 41 39 36 36 36 35 36 37 36 34 31 30 31 32 34 33 32 35 33 31 27 27
43 44 44 41 39 38 36 33 33 31 33 34 35 37 38 39 40 40 41 41 39 38 35 34 34 35 35 35 36 36 33 31 30 29 28 30 32 33 33 33 31 27 26
38 38 37 36 37 36 34 31 29 31 32 32 34 35 36 37 39 39 41 39 37 35 33 32 32 32 33 35 35 34 33 32 28 26 28 29 31 30 30 28 28 27 25
34 35 33 33 34 33 32 29 29 30 30 31 33 33 35 35 35 36 36 35 36 34 32 31 30 30 31 32 33 32 31 30 27 28 30 30 30 29 28 28 28 27 26
32 33 31 30 29 30 30 29 29 29 29 29 31 31 31 31 30 32 33 33 33 32 32 30 29 28 28 28 28 29 29 30 29 28 26 26 26 27 27 27 28 27 26
31 31 29 28 28 28 28 28 28 28 27 28 30 29 29 29 28 29 30 32 32 32 32 32 29 27 25 26 29 29 27 26 25 26 26 25 26 25 26 26 26 26 26
28 28 27 26 26 27 28 28 28 27 26 27 28 27 27 27 27 27 27 31 31 31 31 31 30 29 30 31 30 29 29 29 29 25 23 23 24 23 23 22 22 23 24